Time,TemperatureF,DewpointF,PressureIn,WindDirection,WindDirectionDegrees,WindSpeedMPH,WindSpeedGustMPH,Humidity,HourlyPrecipIn,Conditions,Clouds,dailyrainin,SolarRadiationWatts/m^2,SoftwareType,DateUTC
2013-03-04 00:00:00,28.6,19.7,29.71,NNW,348,0.0,4.0,69,0.00,,---,0.00,0.00,VWS V14.01,2013-03-04 05:00:00,
2013-03-04 00:05:00,28.5,19.0,29.71,ENE,73,0.0,4.0,67,0.00,,---,0.00,0.00,VWS V14.01,2013-03-04 05:05:00,
2013-03-04 00:10:00,28.5,19.0,29.71,NW,318,0.0,4.0,67,0.00,,---,0.00,0.00,VWS V14.01,2013-03-04 05:10:00,
2013-03-04 00:15:00,28.4,19.5,29.71,NNW,336,2.0,2.0,69,0.00,,---,0.00,0.00,VWS V14.01,2013-03-04 05:15:00,
2013-03-04 00:20:00,28.4,18.9,29.71,West,260,0.0,3.0,67,0.00,,---,0.00,0.00,VWS V14.01,2013-03-04 05:20:00,
2013-03-04 00:25:00,28.4,18.9,29.71,NNE,15,1.0,3.0,67,0.00,,---,0.00,0.00,VWS V14.01,2013-03-04 05:25:00,
2013-03-04 00:30:00,28.4,19.5,29.72,NNW,338,0.0,3.0,69,0.00,,---,0.00,0.00,VWS V14.01,2013-03-04 05:30:00,
2013-03-04 00:35:00,28.3,18.8,29.72,SSW,200,1.0,3.0,67,0.00,,---,0.00,0.00,VWS V14.01,2013-03-04 05:35:00,
2013-03-04 00:40:00,28.3,18.8,29.72,NW,314,1.0,3.0,67,0.00,,---,0.00,0.00,VWS V14.01,2013-03-04 05:40:00,
2013-03-04 00:41:00,28.3,18.8,29.72,NNW,328,0.0,3.0,67,0.00,,---,0.00,0.00,VWS V14.01,2013-03-04 05:41:00,
2013-03-04 00:45:00,28.3,18.8,29.72,North,360,0.0,3.0,67,0.00,,---,0.00,0.00,VWS V14.01,2013-03-04 05:45:00,
2013-03-04 00:46:00,28.3,18.8,29.72,North,360,0.0,3.0,67,0.00,,---,0.00,0.00,VWS V14.01,2013-03-04 05:46:00,
2013-03-04 00:50:00,28.2,19.0,29.72,West,269,0.0,3.0,68,0.00,,---,0.00,0.00,VWS V14.01,2013-03-04 05:50:00,
2013-03-04 00:51:00,28.2,19.0,29.72,West,269,0.0,3.0,68,0.00,,---,0.00,0.00,VWS V14.01,2013-03-04 05:51:00,
2013-03-04 00:55:00,28.2,18.7,29.72,NNW,329,1.0,4.0,67,0.00,,---,0.00,0.00,VWS V14.01,2013-03-04 05:55:00,
2013-03-04 00:56:00,28.2,18.7,29.72,NNW,339,1.0,4.0,67,0.00,,---,0.00,0.00,VWS V14.01,2013-03-04 05:56:00,
2013-03-04 01:01:00,28.2,19.0,29.72,West,280,1.0,4.0,68,0.00,,---,0.00,0.00,VWS V14.01,2013-03-04 06:01:00,
2013-03-04 01:06:00,28.1,18.6,29.72,NW,322,0.0,4.0,67,0.00,,---,0.00,0.00,VWS V14.01,2013-03-04 06:06:00,
2013-03-04 01:11:00,28.1,18.6,29.72,SW,228,0.0,4.0,67,0.00,,---,0.00,0.00,VWS V14.01,2013-03-04 06:11:00,
2013-03-04 01:16:00,28.1,18.9,29.72,WSW,257,0.0,0.0,68,0.00,,---,0.00,0.00,VWS V14.01,2013-03-04 06:16:00,
2013-03-04 01:21:00,28.1,19.3,29.72,SW,224,0.0,2.0,69,0.00,,---,0.00,0.00,VWS V14.01,2013-03-04 06:21:00,
2013-03-04 01:26:00,28.0,18.8,29.72,NNW,339,0.0,3.0,68,0.00,,---,0.00,0.00,VWS V14.01,2013-03-04 06:26:00,
2013-03-04 01:27:00,28.0,18.8,29.72,NNW,335,0.0,3.0,68,0.00,,---,0.00,0.00,VWS V14.01,2013-03-04 06:27:00,
2013-03-04 01:31:00,27.9,19.1,29.72,NNW,333,0.0,3.0,69,0.00,,---,0.00,0.00,VWS V14.01,2013-03-04 06:31:00,
2013-03-04 01:32:00,27.9,19.1,29.72,WNW,290,0.0,3.0,69,0.00,,---,0.00,0.00,VWS V14.01,2013-03-04 06:32:00,
2013-03-04 01:36:00,27.8,19.0,29.72,NNW,334,2.0,2.0,69,0.00,,---,0.00,0.00,VWS V14.01,2013-03-04 06:36:00,
2013-03-04 01:37:00,27.8,19.0,29.72,SSW,197,0.0,2.0,69,0.00,,---,0.00,0.00,VWS V14.01,2013-03-04 06:37:00,
2013-03-04 01:41:00,27.8,18.6,29.72,NNW,346,1.0,3.0,68,0.00,,---,0.00,0.00,VWS V14.01,2013-03-04 06:41:00,
2013-03-04 01:42:00,27.8,18.6,29.72,NW,316,1.0,3.0,68,0.00,,---,0.00,0.00,VWS V14.01,2013-03-04 06:42:00,
2013-03-04 01:46:00,27.7,18.2,29.72,NW,321,0.0,3.0,67,0.00,,---,0.00,0.00,VWS V14.01,2013-03-04 06:46:00,
2013-03-04 01:47:00,27.7,18.5,29.72,NW,321,0.0,3.0,68,0.00,,---,0.00,0.00,VWS V14.01,2013-03-04 06:47:00,
2013-03-04 01:51:00,27.6,18.4,29.72,NNW,348,0.0,3.0,68,0.00,,---,0.00,0.00,VWS V14.01,2013-03-04 06:51:00,
2013-03-04 01:52:00,27.6,18.4,29.72,West,277,0.0,0.0,68,0.00,,---,0.00,0.00,VWS V14.01,2013-03-04 06:52:00,
2013-03-04 01:56:00,27.6,18.4,29.72,WSW,255,0.0,2.0,68,0.00,,---,0.00,0.00,VWS V14.01,2013-03-04 06:56:00,
2013-03-04 01:57:00,27.6,18.4,29.72,WSW,255,0.0,2.0,68,0.00,,---,0.00,0.00,VWS V14.01,2013-03-04 06:57:00,
2013-03-04 02:02:00,27.6,18.1,29.72,NW,307,0.0,2.0,67,0.00,,---,0.00,0.00,VWS V14.01,2013-03-04 07:02:00,
2013-03-04 02:07:00,27.6,18.4,29.72,NNW,328,0.0,3.0,68,0.00,,---,0.00,0.00,VWS V14.01,2013-03-04 07:07:00,
2013-03-04 02:12:00,27.6,18.1,29.72,SW,215,1.0,3.0,67,0.00,,---,0.00,0.00,VWS V14.01,2013-03-04 07:12:00,
2013-03-04 02:13:00,27.6,18.1,29.72,NNW,340,3.0,3.0,67,0.00,,---,0.00,0.00,VWS V14.01,2013-03-04 07:13:00,
2013-03-04 02:17:00,27.6,17.7,29.72,NW,316,0.0,5.0,66,0.00,,---,0.00,0.00,VWS V14.01,2013-03-04 07:17:00,
2013-03-04 02:18:00,27.5,17.6,29.72,SW,226,0.0,5.0,66,0.00,,---,0.00,0.00,VWS V14.01,2013-03-04 07:18:00,
2013-03-04 02:22:00,27.5,17.6,29.72,WNW,302,0.0,5.0,66,0.00,,---,0.00,0.00,VWS V14.01,2013-03-04 07:22:00,
2013-03-04 02:23:00,27.5,18.0,29.72,WNW,302,0.0,1.0,67,0.00,,---,0.00,0.00,VWS V14.01,2013-03-04 07:23:00,
2013-03-04 02:27:00,27.6,18.1,29.72,West,278,0.0,1.0,67,0.00,,---,0.00,0.00,VWS V14.01,2013-03-04 07:27:00,
2013-03-04 02:28:00,27.5,17.6,29.72,West,278,0.0,1.0,66,0.00,,---,0.00,0.00,VWS V14.01,2013-03-04 07:28:00,
2013-03-04 02:32:00,27.6,18.1,29.72,North,360,0.0,3.0,67,0.00,,---,0.00,0.00,VWS V14.01,2013-03-04 07:32:00,
2013-03-04 02:33:00,27.6,18.1,29.72,WNW,290,1.0,1.0,67,0.00,,---,0.00,0.00,VWS V14.01,2013-03-04 07:33:00,
2013-03-04 02:37:00,27.6,18.1,29.72,West,277,0.0,2.0,67,0.00,,---,0.00,0.00,VWS V14.01,2013-03-04 07:37:00,
2013-03-04 02:38:00,27.5,18.0,29.72,West,277,0.0,2.0,67,0.00,,---,0.00,0.00,VWS V14.01,2013-03-04 07:38:00,
2013-03-04 02:42:00,27.5,17.6,29.72,SSE,168,1.0,1.0,66,0.00,,---,0.00,0.00,VWS V14.01,2013-03-04 07:42:00,
2013-03-04 02:43:00,27.5,18.0,29.72,South,169,0.0,1.0,67,0.00,,---,0.00,0.00,VWS V14.01,2013-03-04 07:43:00,
2013-03-04 02:47:00,27.5,18.0,29.72,NNW,328,1.0,3.0,67,0.00,,---,0.00,0.00,VWS V14.01,2013-03-04 07:47:00,
2013-03-04 02:48:00,27.5,18.0,29.72,NW,309,1.0,3.0,67,0.00,,---,0.00,0.00,VWS V14.01,2013-03-04 07:48:00,
2013-03-04 02:52:00,27.5,17.6,29.72,North,360,0.0,0.0,66,0.00,,---,0.00,0.00,VWS V14.01,2013-03-04 07:52:00,
2013-03-04 02:53:00,27.5,17.6,29.72,North,360,0.0,1.0,66,0.00,,---,0.00,0.00,VWS V14.01,2013-03-04 07:53:00,
2013-03-04 02:57:00,27.5,18.0,29.72,NNW,344,3.0,3.0,67,0.00,,---,0.00,0.00,VWS V14.01,2013-03-04 07:57:00,
2013-03-04 02:58:00,27.5,17.6,29.72,NNW,344,1.0,3.0,66,0.00,,---,0.00,0.00,VWS V14.01,2013-03-04 07:58:00,
2013-03-04 03:03:00,27.5,18.0,29.72,West,269,0.0,2.0,67,0.00,,---,0.00,0.00,VWS V14.01,2013-03-04 08:03:00,
2013-03-04 03:08:00,27.5,18.0,29.72,NNW,335,1.0,3.0,67,0.00,,---,0.00,0.00,VWS V14.01,2013-03-04 08:08:00,
2013-03-04 03:09:00,27.5,18.0,29.72,WSW,244,0.0,3.0,67,0.00,,---,0.00,0.00,VWS V14.01,2013-03-04 08:09:00,
2013-03-04 03:13:00,27.5,17.6,29.72,WNW,285,0.0,2.0,66,0.00,,---,0.00,0.00,VWS V14.01,2013-03-04 08:13:00,
2013-03-04 03:14:00,27.5,17.6,29.72,WNW,285,0.0,2.0,66,0.00,,---,0.00,0.00,VWS V14.01,2013-03-04 08:14:00,
2013-03-04 03:18:00,27.5,17.6,29.72,East,92,0.0,2.0,66,0.00,,---,0.00,0.00,VWS V14.01,2013-03-04 08:18:00,
2013-03-04 03:19:00,27.5,18.0,29.72,SW,224,3.0,3.0,67,0.00,,---,0.00,0.00,VWS V14.01,2013-03-04 08:19:00,
2013-03-04 03:23:00,27.5,18.0,29.72,NW,307,1.0,4.0,67,0.00,,---,0.00,0.00,VWS V14.01,2013-03-04 08:23:00,
2013-03-04 03:24:00,27.4,17.5,29.72,NNW,340,0.0,4.0,66,0.00,,---,0.00,0.00,VWS V14.01,2013-03-04 08:24:00,
2013-03-04 03:28:00,27.4,17.9,29.72,WSW,256,0.0,4.0,67,0.00,,---,0.00,0.00,VWS V14.01,2013-03-04 08:28:00,
2013-03-04 03:29:00,27.4,18.2,29.72,WSW,256,0.0,4.0,68,0.00,,---,0.00,0.00,VWS V14.01,2013-03-04 08:29:00,
2013-03-04 03:33:00,27.4,17.9,29.72,WNW,288,0.0,0.0,67,0.00,,---,0.00,0.00,VWS V14.01,2013-03-04 08:33:00,
2013-03-04 03:34:00,27.4,17.9,29.72,WNW,288,0.0,0.0,67,0.00,,---,0.00,0.00,VWS V14.01,2013-03-04 08:34:00,
2013-03-04 03:38:00,27.4,17.5,29.72,NW,317,0.0,1.0,66,0.00,,---,0.00,0.00,VWS V14.01,2013-03-04 08:38:00,
2013-03-04 03:39:00,27.4,17.9,29.72,WSW,250,0.0,1.0,67,0.00,,---,0.00,0.00,VWS V14.01,2013-03-04 08:39:00,
2013-03-04 03:43:00,27.4,17.9,29.72,NNW,328,0.0,4.0,67,0.00,,---,0.00,0.00,VWS V14.01,2013-03-04 08:43:00,
2013-03-04 03:44:00,27.4,17.9,29.72,NNW,328,0.0,4.0,67,0.00,,---,0.00,0.00,VWS V14.01,2013-03-04 08:44:00,
2013-03-04 03:48:00,27.4,17.9,29.72,West,259,0.0,4.0,67,0.00,,---,0.00,0.00,VWS V14.01,2013-03-04 08:48:00,
2013-03-04 03:49:00,27.4,17.9,29.72,West,259,0.0,4.0,67,0.00,,---,0.00,0.00,VWS V14.01,2013-03-04 08:49:00,
2013-03-04 03:50:00,27.4,17.5,29.72,East,90,0.0,4.0,66,0.00,,---,0.00,0.00,VWS V14.01,2013-03-04 08:50:00,
2013-03-04 03:53:00,27.4,17.5,29.72,SSW,202,2.0,5.0,66,0.00,,---,0.00,0.00,VWS V14.01,2013-03-04 08:53:00,
2013-03-04 03:54:00,27.4,17.5,29.72,SSW,202,0.0,5.0,66,0.00,,---,0.00,0.00,VWS V14.01,2013-03-04 08:54:00,
2013-03-04 03:55:00,27.4,17.9,29.72,West,276,1.0,5.0,67,0.00,,---,0.00,0.00,VWS V14.01,2013-03-04 08:55:00,
2013-03-04 03:58:00,27.4,17.9,29.72,NNW,343,1.0,5.0,67,0.00,,---,0.00,0.00,VWS V14.01,2013-03-04 08:58:00,
2013-03-04 03:59:00,27.4,17.9,29.72,SW,220,0.0,5.0,67,0.00,,---,0.00,0.00,VWS V14.01,2013-03-04 08:59:00,
2013-03-04 04:00:00,27.4,17.9,29.72,NW,314,2.0,5.0,67,0.00,,---,0.00,0.00,VWS V14.01,2013-03-04 09:00:00,
2013-03-04 04:04:00,27.4,17.5,29.72,WNW,285,0.0,1.0,66,0.00,,---,0.00,0.00,VWS V14.01,2013-03-04 09:04:00,
2013-03-04 04:05:00,27.3,17.8,29.72,WNW,303,1.0,1.0,67,0.00,,---,0.00,0.00,VWS V14.01,2013-03-04 09:05:00,
2013-03-04 04:09:00,27.3,17.8,29.72,NNW,334,0.0,3.0,67,0.00,,---,0.00,0.00,VWS V14.01,2013-03-04 09:09:00,
2013-03-04 04:10:00,27.3,17.8,29.73,NNE,27,2.0,3.0,67,0.00,,---,0.00,0.00,VWS V14.01,2013-03-04 09:10:00,
2013-03-04 04:14:00,27.4,17.9,29.73,NNW,333,2.0,3.0,67,0.00,,---,0.00,0.00,VWS V14.01,2013-03-04 09:14:00,
2013-03-04 04:15:00,27.4,17.9,29.73,NNW,333,0.0,3.0,67,0.00,,---,0.00,0.00,VWS V14.01,2013-03-04 09:15:00,
2013-03-04 04:19:00,27.4,17.9,29.73,NNW,330,0.0,3.0,67,0.00,,---,0.00,0.00,VWS V14.01,2013-03-04 09:19:00,
2013-03-04 04:20:00,27.3,17.5,29.73,NNW,330,0.0,3.0,66,0.00,,---,0.00,0.00,VWS V14.01,2013-03-04 09:20:00,
2013-03-04 04:24:00,27.4,18.2,29.73,NNE,32,2.0,2.0,68,0.00,,---,0.00,0.00,VWS V14.01,2013-03-04 09:24:00,
2013-03-04 04:25:00,27.4,18.2,29.73,North,5,0.0,2.0,68,0.00,,---,0.00,0.00,VWS V14.01,2013-03-04 09:25:00,
2013-03-04 04:29:00,27.3,17.5,29.73,WNW,302,0.0,3.0,66,0.00,,---,0.00,0.00,VWS V14.01,2013-03-04 09:29:00,
2013-03-04 04:30:00,27.3,17.5,29.73,WNW,302,0.0,3.0,66,0.00,,---,0.00,0.00,VWS V14.01,2013-03-04 09:30:00,
2013-03-04 04:34:00,27.3,18.1,29.73,NNW,329,1.0,2.0,68,0.00,,---,0.00,0.00,VWS V14.01,2013-03-04 09:34:00,
2013-03-04 04:35:00,27.4,18.2,29.73,NNW,329,0.0,2.0,68,0.00,,---,0.00,0.00,VWS V14.01,2013-03-04 09:35:00,
2013-03-04 04:39:00,27.3,17.8,29.73,NW,304,1.0,4.0,67,0.00,,---,0.00,0.00,VWS V14.01,2013-03-04 09:39:00,
2013-03-04 04:40:00,27.4,17.9,29.73,NW,305,0.0,4.0,67,0.00,,---,0.00,0.00,VWS V14.01,2013-03-04 09:40:00,
2013-03-04 04:41:00,27.4,17.9,29.73,NNW,345,1.0,4.0,67,0.00,,---,0.00,0.00,VWS V14.01,2013-03-04 09:41:00,
2013-03-04 04:45:00,27.3,18.1,29.73,NNE,26,0.0,1.0,68,0.00,,---,0.00,0.00,VWS V14.01,2013-03-04 09:45:00,
2013-03-04 04:46:00,27.3,18.1,29.73,NW,309,1.0,1.0,68,0.00,,---,0.00,0.00,VWS V14.01,2013-03-04 09:46:00,
2013-03-04 04:50:00,27.4,18.2,29.73,SW,221,0.0,3.0,68,0.00,,---,0.00,0.00,VWS V14.01,2013-03-04 09:50:00,
2013-03-04 04:51:00,27.4,18.2,29.73,SW,221,1.0,3.0,68,0.00,,---,0.00,0.00,VWS V14.01,2013-03-04 09:51:00,
2013-03-04 04:55:00,27.4,18.6,29.73,North,355,2.0,2.0,69,0.00,,---,0.00,0.00,VWS V14.01,2013-03-04 09:55:00,
2013-03-04 04:56:00,27.4,18.2,29.73,NNW,335,1.0,3.0,68,0.00,,---,0.00,0.00,VWS V14.01,2013-03-04 09:56:00,
2013-03-04 05:00:00,27.3,18.1,29.73,WNW,300,0.0,3.0,68,0.00,,---,0.00,0.00,VWS V14.01,2013-03-04 10:00:00,
2013-03-04 05:01:00,27.3,17.8,29.74,NNW,335,2.0,3.0,67,0.00,,---,0.00,0.00,VWS V14.01,2013-03-04 10:01:00,
2013-03-04 05:05:00,27.2,18.4,29.74,NNW,340,0.0,2.0,69,0.00,,---,0.00,0.00,VWS V14.01,2013-03-04 10:05:00,
2013-03-04 05:06:00,27.2,18.4,29.73,NNW,340,0.0,2.0,69,0.00,,---,0.00,0.00,VWS V14.01,2013-03-04 10:06:00,
2013-03-04 05:10:00,27.1,18.0,29.73,WNW,296,0.0,2.0,68,0.00,,---,0.00,0.00,VWS V14.01,2013-03-04 10:10:00,
2013-03-04 05:11:00,27.1,18.0,29.74,WNW,296,0.0,2.0,68,0.00,,---,0.00,0.00,VWS V14.01,2013-03-04 10:11:00,
2013-03-04 05:15:00,27.0,18.2,29.74,NNW,344,1.0,2.0,69,0.00,,---,0.00,0.00,VWS V14.01,2013-03-04 10:15:00,
2013-03-04 05:16:00,27.0,18.2,29.74,NNW,344,0.0,2.0,69,0.00,,---,0.00,0.00,VWS V14.01,2013-03-04 10:16:00,
2013-03-04 05:21:00,26.9,18.4,29.74,SW,235,0.0,2.0,70,0.00,,---,0.00,0.00,VWS V14.01,2013-03-04 10:21:00,
2013-03-04 05:22:00,26.8,18.0,29.74,WSW,237,0.0,2.0,69,0.00,,---,0.00,0.00,VWS V14.01,2013-03-04 10:22:00,
2013-03-04 05:26:00,26.7,18.2,29.74,NW,313,0.0,2.0,70,0.00,,---,0.00,0.00,VWS V14.01,2013-03-04 10:26:00,
2013-03-04 05:27:00,26.7,18.2,29.74,NW,313,1.0,2.0,70,0.00,,---,0.00,0.00,VWS V14.01,2013-03-04 10:27:00,
2013-03-04 05:31:00,26.6,18.5,29.74,WSW,238,0.0,2.0,71,0.00,,---,0.00,0.00,VWS V14.01,2013-03-04 10:31:00,
2013-03-04 05:32:00,26.6,18.5,29.74,West,267,1.0,1.0,71,0.00,,---,0.00,0.00,VWS V14.01,2013-03-04 10:32:00,
2013-03-04 05:36:00,26.6,18.5,29.73,North,11,0.0,4.0,71,0.00,,---,0.00,0.00,VWS V14.01,2013-03-04 10:36:00,
2013-03-04 05:37:00,26.6,18.1,29.74,North,5,0.0,4.0,70,0.00,,---,0.00,0.00,VWS V14.01,2013-03-04 10:37:00,
2013-03-04 05:41:00,26.5,18.0,29.74,West,278,0.0,4.0,70,0.00,,---,0.00,0.00,VWS V14.01,2013-03-04 10:41:00,
2013-03-04 05:42:00,26.5,18.4,29.74,West,278,0.0,4.0,71,0.00,,---,0.00,0.00,VWS V14.01,2013-03-04 10:42:00,
2013-03-04 05:46:00,26.5,18.0,29.74,WNW,296,1.0,1.0,70,0.00,,---,0.00,0.00,VWS V14.01,2013-03-04 10:46:00,
2013-03-04 05:47:00,26.5,18.4,29.74,WNW,296,0.0,1.0,71,0.00,,---,0.00,0.00,VWS V14.01,2013-03-04 10:47:00,
2013-03-04 05:51:00,26.5,18.7,29.74,WNW,296,0.0,1.0,72,0.00,,---,0.00,0.00,VWS V14.01,2013-03-04 10:51:00,
2013-03-04 05:52:00,26.4,18.6,29.74,WNW,296,0.0,0.0,72,0.00,,---,0.00,0.00,VWS V14.01,2013-03-04 10:52:00,
2013-03-04 05:56:00,26.4,18.3,29.74,North,355,2.0,2.0,71,0.00,,---,0.00,0.00,VWS V14.01,2013-03-04 10:56:00,
2013-03-04 05:57:00,26.4,18.3,29.74,North,355,0.0,2.0,71,0.00,,---,0.00,0.00,VWS V14.01,2013-03-04 10:57:00,
2013-03-04 05:58:00,26.4,18.3,29.74,North,355,0.0,2.0,71,0.00,,---,0.00,0.00,VWS V14.01,2013-03-04 10:58:00,
2013-03-04 06:01:00,26.3,18.5,29.74,SW,235,2.0,2.0,72,0.00,,---,0.00,0.00,VWS V14.01,2013-03-04 11:01:00,
2013-03-04 06:02:00,26.4,18.6,29.74,SW,235,0.0,0.0,72,0.00,,---,0.00,0.00,VWS V14.01,2013-03-04 11:02:00,
2013-03-04 06:03:00,26.4,18.6,29.74,SW,235,0.0,0.0,72,0.00,,---,0.00,0.00,VWS V14.01,2013-03-04 11:03:00,
2013-03-04 06:06:00,26.4,18.6,29.74,West,266,0.0,0.0,72,0.00,,---,0.00,0.00,VWS V14.01,2013-03-04 11:06:00,
2013-03-04 06:07:00,26.5,18.7,29.74,West,266,0.0,0.0,72,0.00,,---,0.00,0.00,VWS V14.01,2013-03-04 11:07:00,
2013-03-04 06:08:00,26.5,18.7,29.74,West,266,0.0,1.0,72,0.00,,---,0.00,0.00,VWS V14.01,2013-03-04 11:08:00,
2013-03-04 06:11:00,26.5,18.7,29.74,SW,217,0.0,1.0,72,0.00,,---,0.00,0.00,VWS V14.01,2013-03-04 11:11:00,
2013-03-04 06:13:00,26.5,18.7,29.74,SW,217,0.0,0.0,72,0.00,,---,0.00,0.00,VWS V14.01,2013-03-04 11:13:00,
2013-03-04 06:16:00,26.5,18.7,29.74,SW,234,0.0,2.0,72,0.00,,---,0.00,0.00,VWS V14.01,2013-03-04 11:16:00,
2013-03-04 06:18:00,26.5,18.7,29.74,SW,234,0.0,2.0,72,0.00,,---,0.00,0.00,VWS V14.01,2013-03-04 11:18:00,
2013-03-04 06:21:00,26.5,18.7,29.74,SW,218,0.0,2.0,72,0.00,,---,0.00,0.00,VWS V14.01,2013-03-04 11:21:00,
2013-03-04 06:23:00,26.5,18.7,29.74,SW,218,0.0,0.0,72,0.00,,---,0.00,0.00,VWS V14.01,2013-03-04 11:23:00,
2013-03-04 06:24:00,26.5,18.7,29.74,SW,218,0.0,2.0,72,0.00,,---,0.00,0.00,VWS V14.01,2013-03-04 11:24:00,
2013-03-04 06:27:00,26.6,19.1,29.74,WNW,290,0.0,2.0,73,0.00,,---,0.00,0.00,VWS V14.01,2013-03-04 11:27:00,
2013-03-04 06:28:00,26.5,19.0,29.74,NW,319,1.0,2.0,73,0.00,,---,0.00,5.00,VWS V14.01,2013-03-04 11:28:00,
2013-03-04 06:29:00,26.5,19.0,29.74,West,260,0.0,2.0,73,0.00,,---,0.00,5.00,VWS V14.01,2013-03-04 11:29:00,
2013-03-04 06:32:00,26.5,18.7,29.74,WSW,247,1.0,2.0,72,0.00,,---,0.00,7.00,VWS V14.01,2013-03-04 11:32:00,
2013-03-04 06:33:00,26.5,19.0,29.75,NNW,332,1.0,3.0,73,0.00,,---,0.00,7.00,VWS V14.01,2013-03-04 11:33:00,
2013-03-04 06:34:00,26.5,19.0,29.74,NNW,345,2.0,3.0,73,0.00,,---,0.00,9.00,VWS V14.01,2013-03-04 11:34:00,
2013-03-04 06:37:00,26.6,19.1,29.75,WSW,251,0.0,3.0,73,0.00,,---,0.00,12.00,VWS V14.01,2013-03-04 11:37:00,
2013-03-04 06:38:00,26.6,19.1,29.75,West,279,0.0,3.0,73,0.00,,---,0.00,12.00,VWS V14.01,2013-03-04 11:38:00,
2013-03-04 06:39:00,26.6,19.1,29.75,West,281,0.0,3.0,73,0.00,,---,0.00,12.00,VWS V14.01,2013-03-04 11:39:00,
2013-03-04 06:42:00,26.7,19.2,29.75,WSW,242,0.0,0.0,73,0.00,,---,0.00,16.00,VWS V14.01,2013-03-04 11:42:00,
2013-03-04 06:44:00,26.7,19.2,29.75,WSW,242,0.0,1.0,73,0.00,,---,0.00,18.00,VWS V14.01,2013-03-04 11:44:00,
2013-03-04 06:47:00,26.7,19.2,29.75,SW,232,0.0,3.0,73,0.00,,---,0.00,19.00,VWS V14.01,2013-03-04 11:47:00,
2013-03-04 06:49:00,26.8,19.3,29.75,ENE,68,2.0,3.0,73,0.00,,---,0.00,21.00,VWS V14.01,2013-03-04 11:49:00,
2013-03-04 06:52:00,26.9,19.7,29.75,East,99,0.0,0.0,74,0.00,,---,0.00,25.00,VWS V14.01,2013-03-04 11:52:00,
2013-03-04 06:53:00,26.9,19.4,29.75,East,99,0.0,0.0,73,0.00,,---,0.00,25.00,VWS V14.01,2013-03-04 11:53:00,
2013-03-04 06:54:00,26.9,19.4,29.75,East,98,0.0,0.0,73,0.00,,---,0.00,26.00,VWS V14.01,2013-03-04 11:54:00,
2013-03-04 06:57:00,27.0,19.5,29.75,East,80,1.0,1.0,73,0.00,,---,0.00,28.00,VWS V14.01,2013-03-04 11:57:00,
2013-03-04 06:58:00,27.0,19.5,29.75,NE,51,0.0,2.0,73,0.00,,---,0.00,26.00,VWS V14.01,2013-03-04 11:58:00,
2013-03-04 06:59:00,27.0,19.5,29.75,NE,51,0.0,2.0,73,0.00,,---,0.00,28.00,VWS V14.01,2013-03-04 11:59:00,
2013-03-04 07:02:00,27.2,20.0,29.75,NNE,29,0.0,0.0,74,0.00,,---,0.00,32.00,VWS V14.01,2013-03-04 12:02:00,
2013-03-04 07:03:00,27.2,19.7,29.75,NNE,28,1.0,1.0,73,0.00,,---,0.00,32.00,VWS V14.01,2013-03-04 12:03:00,
2013-03-04 07:04:00,27.2,19.7,29.75,SW,221,2.0,2.0,73,0.00,,---,0.00,32.00,VWS V14.01,2013-03-04 12:04:00,
2013-03-04 07:05:00,27.2,19.7,29.75,NE,38,2.0,2.0,73,0.00,,---,0.00,33.00,VWS V14.01,2013-03-04 12:05:00,
2013-03-04 07:07:00,27.3,19.8,29.75,NW,322,0.0,3.0,73,0.00,,---,0.00,42.00,VWS V14.01,2013-03-04 12:07:00,
2013-03-04 07:08:00,27.3,19.5,29.75,NW,317,0.0,3.0,72,0.00,,---,0.00,44.00,VWS V14.01,2013-03-04 12:08:00,
2013-03-04 07:09:00,27.3,19.5,29.75,WNW,302,0.0,3.0,72,0.00,,---,0.00,44.00,VWS V14.01,2013-03-04 12:09:00,
2013-03-04 07:10:00,27.4,19.6,29.75,WNW,302,0.0,3.0,72,0.00,,---,0.00,46.00,VWS V14.01,2013-03-04 12:10:00,
2013-03-04 07:12:00,27.5,19.7,29.75,West,266,0.0,0.0,72,0.00,,---,0.00,47.00,VWS V14.01,2013-03-04 12:12:00,
2013-03-04 07:13:00,27.5,19.7,29.75,WNW,286,0.0,1.0,72,0.00,,---,0.00,49.00,VWS V14.01,2013-03-04 12:13:00,
2013-03-04 07:14:00,27.5,19.7,29.75,SW,235,1.0,1.0,72,0.00,,---,0.00,53.00,VWS V14.01,2013-03-04 12:14:00,
2013-03-04 07:15:00,27.6,19.8,29.75,WNW,294,0.0,1.0,72,0.00,,---,0.00,58.00,VWS V14.01,2013-03-04 12:15:00,
2013-03-04 07:17:00,27.7,19.9,29.75,WSW,256,0.0,3.0,72,0.00,,---,0.00,81.00,VWS V14.01,2013-03-04 12:17:00,
2013-03-04 07:18:00,27.8,19.6,29.75,WSW,249,0.0,3.0,71,0.00,,---,0.00,74.00,VWS V14.01,2013-03-04 12:18:00,
2013-03-04 07:19:00,27.8,19.6,29.75,WSW,249,0.0,3.0,71,0.00,,---,0.00,74.00,VWS V14.01,2013-03-04 12:19:00,
2013-03-04 07:20:00,27.8,19.6,29.75,WSW,249,0.0,3.0,71,0.00,,---,0.00,81.00,VWS V14.01,2013-03-04 12:20:00,
2013-03-04 07:22:00,28.0,19.8,29.76,SSE,150,0.0,2.0,71,0.00,,---,0.00,70.00,VWS V14.01,2013-03-04 12:22:00,
2013-03-04 07:23:00,28.0,19.8,29.75,SSW,208,1.0,2.0,71,0.00,,---,0.00,67.00,VWS V14.01,2013-03-04 12:23:00,
2013-03-04 07:24:00,28.0,19.5,29.75,SSW,208,2.0,2.0,70,0.00,,---,0.00,58.00,VWS V14.01,2013-03-04 12:24:00,
2013-03-04 07:25:00,28.0,19.5,29.75,North,349,0.0,2.0,70,0.00,,---,0.00,63.00,VWS V14.01,2013-03-04 12:25:00,
2013-03-04 07:27:00,28.0,19.5,29.76,NNW,338,1.0,2.0,70,0.00,,---,0.00,60.00,VWS V14.01,2013-03-04 12:27:00,
2013-03-04 07:29:00,28.1,19.9,29.75,NNW,338,0.0,2.0,71,0.00,,---,0.00,69.00,VWS V14.01,2013-03-04 12:29:00,
2013-03-04 07:30:00,28.2,20.0,29.76,North,350,2.0,2.0,71,0.00,,---,0.00,77.00,VWS V14.01,2013-03-04 12:30:00,
2013-03-04 07:32:00,28.2,20.0,29.76,NNE,25,0.0,2.0,71,0.00,,---,0.00,58.00,VWS V14.01,2013-03-04 12:32:00,
2013-03-04 07:34:00,28.2,20.0,29.76,NNW,343,0.0,2.0,71,0.00,,---,0.00,77.00,VWS V14.01,2013-03-04 12:34:00,
2013-03-04 07:35:00,28.3,20.1,29.76,WNW,294,0.0,2.0,71,0.00,,---,0.00,84.00,VWS V14.01,2013-03-04 12:35:00,
2013-03-04 07:37:00,28.3,19.8,29.76,WSW,240,1.0,2.0,70,0.00,,---,0.00,40.00,VWS V14.01,2013-03-04 12:37:00,
2013-03-04 07:39:00,28.3,20.1,29.76,SW,227,1.0,2.0,71,0.00,,---,0.00,40.00,VWS V14.01,2013-03-04 12:39:00,
2013-03-04 07:41:00,28.3,19.8,29.76,NNW,340,0.0,4.0,70,0.00,,---,0.00,76.00,VWS V14.01,2013-03-04 12:41:00,
2013-03-04 07:42:00,28.3,19.8,29.76,West,269,1.0,2.0,70,0.00,,---,0.00,88.00,VWS V14.01,2013-03-04 12:42:00,
2013-03-04 07:44:00,28.4,20.2,29.76,NNW,329,0.0,2.0,71,0.00,,---,0.00,76.00,VWS V14.01,2013-03-04 12:44:00,
2013-03-04 07:46:00,28.4,20.2,29.76,SW,225,0.0,2.0,71,0.00,,---,0.00,70.00,VWS V14.01,2013-03-04 12:46:00,
2013-03-04 07:47:00,28.5,20.0,29.76,WSW,244,2.0,3.0,70,0.00,,---,0.00,56.00,VWS V14.01,2013-03-04 12:47:00,
2013-03-04 07:49:00,28.5,20.3,29.76,NNW,335,1.0,3.0,71,0.00,,---,0.00,74.00,VWS V14.01,2013-03-04 12:49:00,
2013-03-04 07:50:00,28.6,20.4,29.76,NNW,334,0.0,3.0,71,0.00,,---,0.00,91.00,VWS V14.01,2013-03-04 12:50:00,
2013-03-04 07:51:00,28.6,20.4,29.76,West,277,0.0,4.0,71,0.00,,---,0.00,97.00,VWS V14.01,2013-03-04 12:51:00,
2013-03-04 07:52:00,28.6,20.1,29.76,NW,313,0.0,2.0,70,0.00,,---,0.00,111.00,VWS V14.01,2013-03-04 12:52:00,
2013-03-04 07:54:00,28.6,20.1,29.76,NNW,338,1.0,3.0,70,0.00,,---,0.00,100.00,VWS V14.01,2013-03-04 12:54:00,
2013-03-04 07:55:00,28.7,20.2,29.76,NW,314,0.0,3.0,70,0.00,,---,0.00,93.00,VWS V14.01,2013-03-04 12:55:00,
2013-03-04 07:56:00,28.7,20.2,29.76,NW,313,0.0,3.0,70,0.00,,---,0.00,56.00,VWS V14.01,2013-03-04 12:56:00,
2013-03-04 07:57:00,28.8,20.3,29.76,NNW,339,2.0,3.0,70,0.00,,---,0.00,77.00,VWS V14.01,2013-03-04 12:57:00,
2013-03-04 07:59:00,28.9,20.4,29.76,NNW,337,2.0,4.0,70,0.00,,---,0.00,100.00,VWS V14.01,2013-03-04 12:59:00,
2013-03-04 08:00:00,28.9,20.4,29.76,NNW,330,0.0,4.0,70,0.00,,---,0.00,111.00,VWS V14.01,2013-03-04 13:00:00,
2013-03-04 08:01:00,28.9,20.4,29.76,SW,221,1.0,4.0,70,0.00,,---,0.00,105.00,VWS V14.01,2013-03-04 13:01:00,
2013-03-04 08:03:00,28.9,20.4,29.76,WSW,250,0.0,2.0,70,0.00,,---,0.00,135.00,VWS V14.01,2013-03-04 13:03:00,
2013-03-04 08:04:00,29.0,20.5,29.76,NNW,343,2.0,2.0,70,0.00,,---,0.00,135.00,VWS V14.01,2013-03-04 13:04:00,
2013-03-04 08:05:00,29.0,20.8,29.76,NNW,346,0.0,2.0,71,0.00,,---,0.00,44.00,VWS V14.01,2013-03-04 13:05:00,
2013-03-04 08:06:00,29.1,20.9,29.76,NNW,346,0.0,2.0,71,0.00,,---,0.00,60.00,VWS V14.01,2013-03-04 13:06:00,
2013-03-04 08:08:00,29.3,20.7,29.76,NNW,340,3.0,3.0,70,0.00,,---,0.00,102.00,VWS V14.01,2013-03-04 13:08:00,
2013-03-04 08:09:00,29.3,20.4,29.76,North,5,2.0,3.0,69,0.00,,---,0.00,81.00,VWS V14.01,2013-03-04 13:09:00,
2013-03-04 08:10:00,29.3,20.4,29.76,NNW,329,0.0,4.0,69,0.00,,---,0.00,76.00,VWS V14.01,2013-03-04 13:10:00,
2013-03-04 08:11:00,29.3,20.7,29.76,NNE,20,1.0,4.0,70,0.00,,---,0.00,58.00,VWS V14.01,2013-03-04 13:11:00,
2013-03-04 08:13:00,29.3,20.7,29.76,NNW,340,0.0,3.0,70,0.00,,---,0.00,81.00,VWS V14.01,2013-03-04 13:13:00,
2013-03-04 08:14:00,29.3,20.7,29.76,NNW,340,4.0,4.0,70,0.00,,---,0.00,76.00,VWS V14.01,2013-03-04 13:14:00,
2013-03-04 08:15:00,29.3,20.4,29.76,West,263,1.0,4.0,69,0.00,,---,0.00,72.00,VWS V14.01,2013-03-04 13:15:00,
2013-03-04 08:16:00,29.3,20.4,29.76,West,263,0.0,4.0,69,0.00,,---,0.00,105.00,VWS V14.01,2013-03-04 13:16:00,
2013-03-04 08:18:00,29.4,20.5,29.76,North,355,0.0,4.0,69,0.00,,---,0.00,83.00,VWS V14.01,2013-03-04 13:18:00,
2013-03-04 08:19:00,29.4,20.5,29.76,NNW,348,0.0,4.0,69,0.00,,---,0.00,44.00,VWS V14.01,2013-03-04 13:19:00,
2013-03-04 08:20:00,29.4,20.5,29.76,NNW,348,1.0,4.0,69,0.00,,---,0.00,46.00,VWS V14.01,2013-03-04 13:20:00,
2013-03-04 08:21:00,29.6,20.7,29.76,NW,321,0.0,4.0,69,0.00,,---,0.00,44.00,VWS V14.01,2013-03-04 13:21:00,
2013-03-04 08:23:00,29.8,20.9,29.76,NW,313,1.0,2.0,69,0.00,,---,0.00,46.00,VWS V14.01,2013-03-04 13:23:00,
2013-03-04 08:25:00,30.0,21.4,29.76,NNW,342,5.0,5.0,70,0.00,,---,0.00,95.00,VWS V14.01,2013-03-04 13:25:00,
2013-03-04 08:26:00,30.0,20.7,29.76,WSW,238,1.0,6.0,68,0.00,,---,0.00,151.00,VWS V14.01,2013-03-04 13:26:00,
2013-03-04 08:28:00,30.0,21.1,29.76,NNW,346,2.0,6.0,69,0.00,,---,0.00,58.00,VWS V14.01,2013-03-04 13:28:00,
2013-03-04 08:30:00,30.1,21.2,29.76,NNW,333,1.0,6.0,69,0.00,,---,0.00,111.00,VWS V14.01,2013-03-04 13:30:00,
2013-03-04 08:31:00,30.1,20.8,29.76,NW,325,2.0,6.0,68,0.00,,---,0.00,160.00,VWS V14.01,2013-03-04 13:31:00,
2013-03-04 08:33:00,30.2,20.9,29.76,North,5,0.0,1.0,68,0.00,,---,0.00,63.00,VWS V14.01,2013-03-04 13:33:00,
2013-03-04 08:35:00,30.4,21.5,29.76,NNW,327,0.0,5.0,69,0.00,,---,0.00,105.00,VWS V14.01,2013-03-04 13:35:00,
2013-03-04 08:37:00,30.4,20.8,29.76,SW,221,0.0,5.0,67,0.00,,---,0.00,97.00,VWS V14.01,2013-03-04 13:37:00,
2013-03-04 08:38:00,30.6,21.3,29.76,SW,221,0.0,5.0,68,0.00,,---,0.00,243.00,VWS V14.01,2013-03-04 13:38:00,
2013-03-04 08:40:00,30.7,21.4,29.76,WSW,238,0.0,5.0,68,0.00,,---,0.00,329.00,VWS V14.01,2013-03-04 13:40:00,
2013-03-04 08:42:00,30.8,21.1,29.76,NW,311,0.0,1.0,67,0.00,,---,0.00,332.00,VWS V14.01,2013-03-04 13:42:00,
2013-03-04 08:43:00,30.9,21.2,29.76,North,360,2.0,2.0,67,0.00,,---,0.00,401.00,VWS V14.01,2013-03-04 13:43:00,
2013-03-04 08:45:00,30.9,20.9,29.76,NNW,337,0.0,2.0,66,0.00,,---,0.00,390.00,VWS V14.01,2013-03-04 13:45:00,
2013-03-04 08:47:00,31.0,21.0,29.76,NNW,339,1.0,3.0,66,0.00,,---,0.00,278.00,VWS V14.01,2013-03-04 13:47:00,
2013-03-04 08:48:00,31.0,21.0,29.76,SSW,200,7.0,7.0,66,0.00,,---,0.00,260.00,VWS V14.01,2013-03-04 13:48:00,
2013-03-04 08:50:00,31.0,21.0,29.76,NNW,330,0.0,7.0,66,0.00,,---,0.00,114.00,VWS V14.01,2013-03-04 13:50:00,
2013-03-04 08:52:00,31.0,21.0,29.76,NNW,337,0.0,2.0,66,0.00,,---,0.00,49.00,VWS V14.01,2013-03-04 13:52:00,
2013-03-04 08:54:00,31.0,21.0,29.76,NNW,335,1.0,3.0,66,0.00,,---,0.00,116.00,VWS V14.01,2013-03-04 13:54:00,
2013-03-04 08:55:00,31.2,21.5,29.75,NW,307,1.0,3.0,67,0.00,,---,0.00,163.00,VWS V14.01,2013-03-04 13:55:00,
2013-03-04 08:57:00,31.3,21.3,29.76,West,261,0.0,3.0,66,0.00,,---,0.00,243.00,VWS V14.01,2013-03-04 13:57:00,
2013-03-04 08:59:00,31.4,21.0,29.76,West,264,0.0,3.0,65,0.00,,---,0.00,246.00,VWS V14.01,2013-03-04 13:59:00,
2013-03-04 09:00:00,31.5,21.5,29.76,SW,223,2.0,3.0,66,0.00,,---,0.00,185.00,VWS V14.01,2013-03-04 14:00:00,
2013-03-04 09:01:00,31.5,21.5,29.76,SW,223,2.0,3.0,66,0.00,,---,0.00,185.00,VWS V14.01,2013-03-04 14:01:00,
2013-03-04 09:02:00,31.5,21.1,29.75,WNW,285,1.0,1.0,65,0.00,,---,0.00,179.00,VWS V14.01,2013-03-04 14:02:00,
2013-03-04 09:04:00,31.5,21.1,29.75,WNW,299,0.0,1.0,65,0.00,,---,0.00,288.00,VWS V14.01,2013-03-04 14:04:00,
2013-03-04 09:05:00,31.5,20.7,29.75,SW,215,2.0,3.0,64,0.00,,---,0.00,306.00,VWS V14.01,2013-03-04 14:05:00,
2013-03-04 09:06:00,31.5,20.7,29.75,WSW,240,3.0,3.0,64,0.00,,---,0.00,306.00,VWS V14.01,2013-03-04 14:06:00,
2013-03-04 09:07:00,31.4,21.0,29.75,NNW,336,2.0,3.0,65,0.00,,---,0.00,149.00,VWS V14.01,2013-03-04 14:07:00,
2013-03-04 09:09:00,31.3,20.9,29.76,North,351,2.0,3.0,65,0.00,,---,0.00,149.00,VWS V14.01,2013-03-04 14:09:00,
2013-03-04 09:10:00,31.2,20.8,29.75,SW,224,4.0,5.0,65,0.00,,---,0.00,471.00,VWS V14.01,2013-03-04 14:10:00,
2013-03-04 09:11:00,31.2,20.8,29.75,SSW,211,1.0,5.0,65,0.00,,---,0.00,471.00,VWS V14.01,2013-03-04 14:11:00,
2013-03-04 09:12:00,31.4,21.4,29.75,NW,314,1.0,2.0,66,0.00,,---,0.00,345.00,VWS V14.01,2013-03-04 14:12:00,
2013-03-04 09:15:00,31.5,21.1,29.75,West,270,1.0,4.0,65,0.00,,---,0.00,346.00,VWS V14.01,2013-03-04 14:15:00,
2013-03-04 09:16:00,31.5,21.1,29.75,WSW,242,1.0,4.0,65,0.00,,---,0.00,308.00,VWS V14.01,2013-03-04 14:16:00,
2013-03-04 09:18:00,31.7,21.3,29.75,NNW,329,0.0,4.0,65,0.00,,---,0.00,332.00,VWS V14.01,2013-03-04 14:18:00,
2013-03-04 09:20:00,31.9,21.5,29.75,SSW,204,2.0,4.0,65,0.00,,---,0.00,531.00,VWS V14.01,2013-03-04 14:20:00,
2013-03-04 09:21:00,31.9,21.1,29.75,WSW,248,1.0,4.0,64,0.00,,---,0.00,563.00,VWS V14.01,2013-03-04 14:21:00,
2013-03-04 09:23:00,32.0,21.2,29.75,NW,321,0.0,2.0,64,0.00,,---,0.00,563.00,VWS V14.01,2013-03-04 14:23:00,
2013-03-04 09:26:00,31.9,20.8,29.75,NW,321,0.0,2.0,63,0.00,,---,0.00,153.00,VWS V14.01,2013-03-04 14:26:00,
2013-03-04 09:28:00,31.6,20.5,29.76,NNW,346,1.0,2.0,63,0.00,,---,0.00,83.00,VWS V14.01,2013-03-04 14:28:00,
2013-03-04 09:31:00,31.4,21.0,29.75,NNW,342,3.0,4.0,65,0.00,,---,0.00,269.00,VWS V14.01,2013-03-04 14:31:00,
2013-03-04 09:33:00,31.4,20.6,29.75,NNW,344,0.0,2.0,64,0.00,,---,0.00,134.00,VWS V14.01,2013-03-04 14:33:00,
2013-03-04 09:36:00,31.6,21.2,29.75,SW,231,3.0,3.0,65,0.00,,---,0.00,336.00,VWS V14.01,2013-03-04 14:36:00,
2013-03-04 09:38:00,31.9,21.1,29.75,WSW,240,0.0,3.0,64,0.00,,---,0.00,339.00,VWS V14.01,2013-03-04 14:38:00,
2013-03-04 09:41:00,32.0,20.9,29.75,North,360,0.0,4.0,63,0.00,,---,0.00,424.00,VWS V14.01,2013-03-04 14:41:00,
2013-03-04 09:43:00,32.0,20.5,29.75,WSW,250,0.0,2.0,62,0.00,,---,0.00,396.00,VWS V14.01,2013-03-04 14:43:00,
2013-03-04 09:46:00,32.5,20.9,29.75,NNW,347,1.0,3.0,62,0.00,,---,0.00,418.00,VWS V14.01,2013-03-04 14:46:00,
2013-03-04 09:48:00,32.6,20.7,29.75,SE,130,0.0,3.0,61,0.00,,---,0.00,473.00,VWS V14.01,2013-03-04 14:48:00,
2013-03-04 09:51:00,32.9,21.3,29.75,NW,311,2.0,3.0,62,0.00,,---,0.00,471.00,VWS V14.01,2013-03-04 14:51:00,
2013-03-04 09:52:00,33.0,21.4,29.75,West,275,0.0,3.0,62,0.00,,---,0.00,471.00,VWS V14.01,2013-03-04 14:52:00,
2013-03-04 09:53:00,33.2,21.6,29.75,SW,216,0.0,5.0,62,0.00,,---,0.00,471.00,VWS V14.01,2013-03-04 14:53:00,
2013-03-04 09:56:00,33.0,21.0,29.75,NNE,28,0.0,5.0,61,0.00,,---,0.00,566.00,VWS V14.01,2013-03-04 14:56:00,
2013-03-04 09:57:00,33.0,21.4,29.75,NNW,343,1.0,5.0,62,0.00,,---,0.00,631.00,VWS V14.01,2013-03-04 14:57:00,
2013-03-04 09:59:00,33.2,21.2,29.75,South,188,0.0,5.0,61,0.00,,---,0.00,601.00,VWS V14.01,2013-03-04 14:59:00,
2013-03-04 10:01:00,33.5,21.5,29.75,NNW,329,1.0,5.0,61,0.00,,---,0.00,675.00,VWS V14.01,2013-03-04 15:01:00,
2013-03-04 10:04:00,33.9,21.9,29.75,SW,214,1.0,3.0,61,0.00,,---,0.00,679.00,VWS V14.01,2013-03-04 15:04:00,
2013-03-04 10:06:00,33.6,20.8,29.75,NNW,336,1.0,4.0,59,0.00,,---,0.00,499.00,VWS V14.01,2013-03-04 15:06:00,
2013-03-04 10:07:00,33.7,21.7,29.75,WSW,254,1.0,4.0,61,0.00,,---,0.00,499.00,VWS V14.01,2013-03-04 15:07:00,
2013-03-04 10:09:00,33.8,21.4,29.75,SW,229,0.0,5.0,60,0.00,,---,0.00,619.00,VWS V14.01,2013-03-04 15:09:00,
2013-03-04 10:11:00,34.0,21.6,29.75,SSW,195,1.0,5.0,60,0.00,,---,0.00,635.00,VWS V14.01,2013-03-04 15:11:00,
2013-03-04 10:12:00,34.0,21.6,29.75,North,355,6.0,6.0,60,0.00,,---,0.00,642.00,VWS V14.01,2013-03-04 15:12:00,
2013-03-04 10:14:00,34.0,21.2,29.75,NNW,335,6.0,6.0,59,0.00,,---,0.00,749.00,VWS V14.01,2013-03-04 15:14:00,
2013-03-04 10:17:00,34.1,21.7,29.75,ENE,59,2.0,6.0,60,0.00,,---,0.00,758.00,VWS V14.01,2013-03-04 15:17:00,
2013-03-04 10:19:00,34.3,21.5,29.75,North,351,0.0,6.0,59,0.00,,---,0.00,784.00,VWS V14.01,2013-03-04 15:19:00,
2013-03-04 10:22:00,35.0,22.5,29.75,SSW,196,2.0,6.0,60,0.00,,---,0.00,765.00,VWS V14.01,2013-03-04 15:22:00,
2013-03-04 10:24:00,35.5,22.2,29.75,SW,226,1.0,2.0,58,0.00,,---,0.00,758.00,VWS V14.01,2013-03-04 15:24:00,
2013-03-04 10:27:00,35.6,22.7,29.75,SW,227,1.0,3.0,59,0.00,,---,0.00,784.00,VWS V14.01,2013-03-04 15:27:00,
2013-03-04 10:29:00,35.8,22.1,29.75,North,355,1.0,4.0,57,0.00,,---,0.00,756.00,VWS V14.01,2013-03-04 15:29:00,
2013-03-04 10:32:00,35.7,22.4,29.75,NNW,344,3.0,4.0,58,0.00,,---,0.00,738.00,VWS V14.01,2013-03-04 15:32:00,
2013-03-04 10:34:00,35.7,22.0,29.75,NW,308,0.0,2.0,57,0.00,,---,0.00,749.00,VWS V14.01,2013-03-04 15:34:00,
2013-03-04 10:37:00,36.0,22.3,29.75,NE,36,0.0,4.0,57,0.00,,---,0.00,789.00,VWS V14.01,2013-03-04 15:37:00,
2013-03-04 10:40:00,35.8,21.6,29.75,NNW,333,4.0,6.0,56,0.00,,---,0.00,731.00,VWS V14.01,2013-03-04 15:40:00,
2013-03-04 10:42:00,35.5,21.4,29.75,SSW,207,0.0,6.0,56,0.00,,---,0.00,722.00,VWS V14.01,2013-03-04 15:42:00,
2013-03-04 10:43:00,35.6,21.9,29.75,SSW,207,0.0,0.0,57,0.00,,---,0.00,721.00,VWS V14.01,2013-03-04 15:43:00,
2013-03-04 10:45:00,36.0,21.8,29.75,North,5,1.0,3.0,56,0.00,,---,0.00,738.00,VWS V14.01,2013-03-04 15:45:00,
2013-03-04 10:47:00,36.5,23.1,29.75,SW,232,1.0,3.0,58,0.00,,---,0.00,742.00,VWS V14.01,2013-03-04 15:47:00,
2013-03-04 10:48:00,36.6,22.4,29.75,WNW,284,0.0,3.0,56,0.00,,---,0.00,749.00,VWS V14.01,2013-03-04 15:48:00,
2013-03-04 10:50:00,36.5,21.9,29.74,NNW,344,0.0,3.0,55,0.00,,---,0.00,724.00,VWS V14.01,2013-03-04 15:50:00,
2013-03-04 10:52:00,36.3,22.1,29.75,WNW,294,1.0,6.0,56,0.00,,---,0.00,744.00,VWS V14.01,2013-03-04 15:52:00,
2013-03-04 10:53:00,36.2,22.0,29.75,West,273,0.0,2.0,56,0.00,,---,0.00,742.00,VWS V14.01,2013-03-04 15:53:00,
2013-03-04 10:55:00,36.2,22.0,29.75,South,185,1.0,5.0,56,0.00,,---,0.00,756.00,VWS V14.01,2013-03-04 15:55:00,
2013-03-04 10:57:00,35.9,21.8,29.75,NNW,344,2.0,6.0,56,0.00,,---,0.00,759.00,VWS V14.01,2013-03-04 15:57:00,
2013-03-04 10:58:00,35.8,21.6,29.74,SW,234,0.0,6.0,56,0.00,,---,0.00,766.00,VWS V14.01,2013-03-04 15:58:00,
2013-03-04 11:00:00,36.2,22.0,29.75,WSW,238,2.0,6.0,56,0.00,,---,0.00,684.00,VWS V14.01,2013-03-04 16:00:00,
2013-03-04 11:02:00,36.1,21.5,29.75,WSW,246,0.0,0.0,55,0.00,,---,0.00,763.00,VWS V14.01,2013-03-04 16:02:00,
2013-03-04 11:03:00,36.1,21.5,29.75,North,5,2.0,3.0,55,0.00,,---,0.00,754.00,VWS V14.01,2013-03-04 16:03:00,
2013-03-04 11:05:00,35.9,21.3,29.75,SW,229,0.0,7.0,55,0.00,,---,0.00,752.00,VWS V14.01,2013-03-04 16:05:00,
2013-03-04 11:07:00,35.8,21.6,29.75,WSW,245,2.0,7.0,56,0.00,,---,0.00,761.00,VWS V14.01,2013-03-04 16:07:00,
2013-03-04 11:08:00,35.9,21.8,29.75,West,259,0.0,7.0,56,0.00,,---,0.00,763.00,VWS V14.01,2013-03-04 16:08:00,
2013-03-04 11:10:00,36.1,22.4,29.75,WSW,238,5.0,7.0,57,0.00,,---,0.00,768.00,VWS V14.01,2013-03-04 16:10:00,
2013-03-04 11:12:00,36.2,22.5,29.75,North,355,1.0,1.0,57,0.00,,---,0.00,744.00,VWS V14.01,2013-03-04 16:12:00,
2013-03-04 11:13:00,36.3,22.5,29.75,North,355,1.0,3.0,57,0.00,,---,0.00,744.00,VWS V14.01,2013-03-04 16:13:00,
2013-03-04 11:16:00,36.5,21.5,29.75,WSW,240,0.0,5.0,54,0.00,,---,0.00,747.00,VWS V14.01,2013-03-04 16:16:00,
2013-03-04 11:17:00,36.3,21.7,29.75,NW,325,1.0,5.0,55,0.00,,---,0.00,745.00,VWS V14.01,2013-03-04 16:17:00,
2013-03-04 11:18:00,36.2,21.2,29.75,WSW,257,3.0,5.0,54,0.00,,---,0.00,749.00,VWS V14.01,2013-03-04 16:18:00,
2013-03-04 11:19:00,36.0,21.4,29.75,SW,223,1.0,5.0,55,0.00,,---,0.00,752.00,VWS V14.01,2013-03-04 16:19:00,
2013-03-04 11:21:00,36.1,21.9,29.74,NW,324,0.0,5.0,56,0.00,,---,0.00,752.00,VWS V14.01,2013-03-04 16:21:00,
2013-03-04 11:22:00,36.4,22.2,29.75,NW,324,0.0,0.0,56,0.00,,---,0.00,766.00,VWS V14.01,2013-03-04 16:22:00,
2013-03-04 11:23:00,36.9,22.7,29.75,North,350,4.0,6.0,56,0.00,,---,0.00,756.00,VWS V14.01,2013-03-04 16:23:00,
2013-03-04 11:24:00,37.0,22.4,29.75,West,264,0.0,6.0,55,0.00,,---,0.00,751.00,VWS V14.01,2013-03-04 16:24:00,
2013-03-04 11:26:00,37.1,22.0,29.74,North,5,3.0,6.0,54,0.00,,---,0.00,761.00,VWS V14.01,2013-03-04 16:26:00,
2013-03-04 11:27:00,36.9,21.8,29.74,North,5,3.0,6.0,54,0.00,,---,0.00,761.00,VWS V14.01,2013-03-04 16:27:00,
2013-03-04 11:28:00,36.8,21.3,29.74,SW,225,2.0,6.0,53,0.00,,---,0.00,482.00,VWS V14.01,2013-03-04 16:28:00,
2013-03-04 11:29:00,36.8,21.7,29.74,SW,229,0.0,6.0,54,0.00,,---,0.00,301.00,VWS V14.01,2013-03-04 16:29:00,
2013-03-04 11:31:00,36.8,22.2,29.74,SW,223,2.0,6.0,55,0.00,,---,0.00,301.00,VWS V14.01,2013-03-04 16:31:00,
2013-03-04 11:32:00,36.9,22.3,29.74,NW,311,0.0,0.0,55,0.00,,---,0.00,301.00,VWS V14.01,2013-03-04 16:32:00,
2013-03-04 11:33:00,36.9,21.8,29.74,WSW,246,1.0,3.0,54,0.00,,---,0.00,628.00,VWS V14.01,2013-03-04 16:33:00,
2013-03-04 11:34:00,36.9,22.3,29.74,WNW,288,3.0,5.0,55,0.00,,---,0.00,628.00,VWS V14.01,2013-03-04 16:34:00,
2013-03-04 11:36:00,37.1,22.4,29.74,NE,40,0.0,5.0,55,0.00,,---,0.00,628.00,VWS V14.01,2013-03-04 16:36:00,
2013-03-04 11:37:00,37.1,22.4,29.74,WSW,245,2.0,5.0,55,0.00,,---,0.00,761.00,VWS V14.01,2013-03-04 16:37:00,
2013-03-04 11:38:00,36.9,21.4,29.74,NW,310,1.0,5.0,53,0.00,,---,0.00,707.00,VWS V14.01,2013-03-04 16:38:00,
2013-03-04 11:39:00,36.8,21.7,29.74,WSW,250,0.0,5.0,54,0.00,,---,0.00,677.00,VWS V14.01,2013-03-04 16:39:00,
2013-03-04 11:41:00,36.6,22.0,29.74,NW,310,0.0,5.0,55,0.00,,---,0.00,677.00,VWS V14.01,2013-03-04 16:41:00,
2013-03-04 11:42:00,36.6,22.0,29.74,NW,311,1.0,1.0,55,0.00,,---,0.00,504.00,VWS V14.01,2013-03-04 16:42:00,
2013-03-04 11:43:00,36.8,22.2,29.74,SW,236,1.0,3.0,55,0.00,,---,0.00,527.00,VWS V14.01,2013-03-04 16:43:00,
2013-03-04 11:44:00,36.8,21.7,29.74,NNE,26,0.0,3.0,54,0.00,,---,0.00,527.00,VWS V14.01,2013-03-04 16:44:00,
2013-03-04 11:46:00,36.9,22.3,29.74,WNW,294,4.0,5.0,55,0.00,,---,0.00,104.00,VWS V14.01,2013-03-04 16:46:00,
2013-03-04 11:47:00,37.0,22.4,29.74,SW,219,1.0,5.0,55,0.00,,---,0.00,104.00,VWS V14.01,2013-03-04 16:47:00,
2013-03-04 11:48:00,36.9,21.4,29.74,NNW,342,1.0,5.0,53,0.00,,---,0.00,193.00,VWS V14.01,2013-03-04 16:48:00,
2013-03-04 11:49:00,36.9,21.8,29.74,North,355,1.0,5.0,54,0.00,,---,0.00,253.00,VWS V14.01,2013-03-04 16:49:00,
2013-03-04 11:51:00,37.0,21.9,29.74,WNW,300,2.0,9.0,54,0.00,,---,0.00,146.00,VWS V14.01,2013-03-04 16:51:00,
2013-03-04 11:52:00,37.0,21.9,29.74,WNW,300,4.0,4.0,54,0.00,,---,0.00,169.00,VWS V14.01,2013-03-04 16:52:00,
2013-03-04 11:53:00,36.9,21.8,29.74,NW,317,0.0,4.0,54,0.00,,---,0.00,102.00,VWS V14.01,2013-03-04 16:53:00,
2013-03-04 11:54:00,36.9,22.3,29.74,North,355,0.0,4.0,55,0.00,,---,0.00,84.00,VWS V14.01,2013-03-04 16:54:00,
2013-03-04 11:56:00,37.1,22.4,29.74,North,360,2.0,4.0,55,0.00,,---,0.00,193.00,VWS V14.01,2013-03-04 16:56:00,
2013-03-04 11:57:00,37.2,22.1,29.74,SW,231,2.0,4.0,54,0.00,,---,0.00,236.00,VWS V14.01,2013-03-04 16:57:00,
2013-03-04 11:59:00,37.3,22.6,29.74,NNW,344,1.0,5.0,55,0.00,,---,0.00,107.00,VWS V14.01,2013-03-04 16:59:00,
2013-03-04 12:02:00,37.1,21.6,29.74,WNW,284,0.0,5.0,53,0.00,,---,0.00,190.00,VWS V14.01,2013-03-04 17:02:00,
2013-03-04 12:04:00,37.1,22.0,29.74,WSW,254,0.0,2.0,54,0.00,,---,0.00,81.00,VWS V14.01,2013-03-04 17:04:00,
2013-03-04 12:05:00,37.1,22.4,29.74,WSW,248,0.0,2.0,55,0.00,,---,0.00,120.00,VWS V14.01,2013-03-04 17:05:00,
2013-03-04 12:07:00,37.2,21.7,29.74,SSW,211,1.0,3.0,53,0.00,,---,0.00,127.00,VWS V14.01,2013-03-04 17:07:00,
2013-03-04 12:09:00,37.2,21.7,29.73,WNW,291,1.0,3.0,53,0.00,,---,0.00,204.00,VWS V14.01,2013-03-04 17:09:00,
2013-03-04 12:10:00,37.2,22.5,29.73,NW,313,0.0,3.0,55,0.00,,---,0.00,185.00,VWS V14.01,2013-03-04 17:10:00,
2013-03-04 12:12:00,37.3,21.8,29.73,NE,38,0.0,4.0,53,0.00,,---,0.00,98.00,VWS V14.01,2013-03-04 17:12:00,
2013-03-04 12:14:00,37.3,22.2,29.73,West,278,1.0,2.0,54,0.00,,---,0.00,111.00,VWS V14.01,2013-03-04 17:14:00,
2013-03-04 12:15:00,37.3,22.2,29.73,South,169,1.0,2.0,54,0.00,,---,0.00,111.00,VWS V14.01,2013-03-04 17:15:00,
2013-03-04 12:17:00,37.5,22.8,29.73,SW,216,1.0,5.0,55,0.00,,---,0.00,121.00,VWS V14.01,2013-03-04 17:17:00,
2013-03-04 12:18:00,37.5,22.4,29.73,SW,227,0.0,5.0,54,0.00,,---,0.00,91.00,VWS V14.01,2013-03-04 17:18:00,
2013-03-04 12:19:00,37.6,22.5,29.73,SSE,166,1.0,5.0,54,0.00,,---,0.00,79.00,VWS V14.01,2013-03-04 17:19:00,
2013-03-04 12:20:00,37.6,21.6,29.73,SW,217,2.0,5.0,52,0.00,,---,0.00,79.00,VWS V14.01,2013-03-04 17:20:00,
2013-03-04 12:22:00,37.6,21.6,29.73,North,349,0.0,1.0,52,0.00,,---,0.00,95.00,VWS V14.01,2013-03-04 17:22:00,
2013-03-04 12:23:00,37.5,21.9,29.73,NE,56,2.0,4.0,53,0.00,,---,0.00,88.00,VWS V14.01,2013-03-04 17:23:00,
2013-03-04 12:24:00,37.4,22.3,29.73,NW,325,5.0,7.0,54,0.00,,---,0.00,70.00,VWS V14.01,2013-03-04 17:24:00,
2013-03-04 12:25:00,37.4,22.3,29.73,WNW,303,1.0,7.0,54,0.00,,---,0.00,70.00,VWS V14.01,2013-03-04 17:25:00,
2013-03-04 12:27:00,37.5,21.9,29.72,West,260,0.0,7.0,53,0.00,,---,0.00,77.00,VWS V14.01,2013-03-04 17:27:00,
2013-03-04 12:28:00,37.6,22.5,29.73,NNW,330,3.0,7.0,54,0.00,,---,0.00,60.00,VWS V14.01,2013-03-04 17:28:00,
2013-03-04 12:30:00,37.9,22.3,29.72,NNW,329,0.0,7.0,53,0.00,,---,0.00,72.00,VWS V14.01,2013-03-04 17:30:00,
2013-03-04 12:32:00,37.9,21.9,29.72,NNW,347,0.0,2.0,52,0.00,,---,0.00,58.00,VWS V14.01,2013-03-04 17:32:00,
2013-03-04 12:33:00,37.9,21.9,29.72,NNW,347,0.0,2.0,52,0.00,,---,0.00,56.00,VWS V14.01,2013-03-04 17:33:00,
2013-03-04 12:35:00,38.0,22.4,29.72,NW,322,4.0,5.0,53,0.00,,---,0.00,70.00,VWS V14.01,2013-03-04 17:35:00,
2013-03-04 12:38:00,38.2,23.0,29.72,SW,221,4.0,6.0,54,0.00,,---,0.00,98.00,VWS V14.01,2013-03-04 17:38:00,
2013-03-04 12:40:00,38.2,22.6,29.72,West,268,0.0,7.0,53,0.00,,---,0.00,81.00,VWS V14.01,2013-03-04 17:40:00,
2013-03-04 12:43:00,38.5,23.3,29.72,NNW,346,7.0,8.0,54,0.00,,---,0.00,102.00,VWS V14.01,2013-03-04 17:43:00,
2013-03-04 12:45:00,38.6,23.0,29.72,NNW,348,0.0,8.0,53,0.00,,---,0.00,88.00,VWS V14.01,2013-03-04 17:45:00,
2013-03-04 12:46:00,38.5,22.4,29.72,SW,221,2.0,8.0,52,0.00,,---,0.00,88.00,VWS V14.01,2013-03-04 17:46:00,
2013-03-04 12:48:00,38.6,23.0,29.72,North,10,3.0,8.0,53,0.00,,---,0.00,90.00,VWS V14.01,2013-03-04 17:48:00,
2013-03-04 12:50:00,38.5,22.0,29.72,NNE,17,0.0,8.0,51,0.00,,---,0.00,65.00,VWS V14.01,2013-03-04 17:50:00,
2013-03-04 12:51:00,38.4,22.3,29.72,NW,316,0.0,8.0,52,0.00,,---,0.00,65.00,VWS V14.01,2013-03-04 17:51:00,
2013-03-04 12:53:00,38.4,22.3,29.72,WNW,298,0.0,4.0,52,0.00,,---,0.00,69.00,VWS V14.01,2013-03-04 17:53:00,
2013-03-04 12:55:00,38.0,21.5,29.72,SW,227,1.0,5.0,51,0.00,,---,0.00,72.00,VWS V14.01,2013-03-04 17:55:00,
2013-03-04 12:56:00,37.9,21.4,29.72,WNW,284,0.0,5.0,51,0.00,,---,0.00,72.00,VWS V14.01,2013-03-04 17:56:00,
2013-03-04 12:58:00,37.9,22.3,29.71,WSW,242,4.0,5.0,53,0.00,,---,0.00,70.00,VWS V14.01,2013-03-04 17:58:00,
2013-03-04 13:00:00,37.9,21.9,29.71,NW,326,0.0,5.0,52,0.00,,---,0.00,84.00,VWS V14.01,2013-03-04 18:00:00,
2013-03-04 13:01:00,37.9,21.4,29.71,NE,39,1.0,5.0,51,0.00,,---,0.00,84.00,VWS V14.01,2013-03-04 18:01:00,
2013-03-04 13:03:00,37.9,22.3,29.71,West,265,2.0,3.0,53,0.00,,---,0.00,77.00,VWS V14.01,2013-03-04 18:03:00,
2013-03-04 13:05:00,38.0,21.5,29.72,NNE,22,1.0,4.0,51,0.00,,---,0.00,105.00,VWS V14.01,2013-03-04 18:05:00,
2013-03-04 13:06:00,38.1,22.0,29.71,SW,234,2.0,4.0,52,0.00,,---,0.00,105.00,VWS V14.01,2013-03-04 18:06:00,
2013-03-04 13:08:00,38.2,22.1,29.71,SW,215,0.0,4.0,52,0.00,,---,0.00,279.00,VWS V14.01,2013-03-04 18:08:00,
2013-03-04 13:09:00,38.3,22.7,29.71,SW,215,0.0,4.0,53,0.00,,---,0.00,279.00,VWS V14.01,2013-03-04 18:09:00,
2013-03-04 13:10:00,38.5,22.4,29.71,SSW,196,1.0,4.0,52,0.00,,---,0.00,130.00,VWS V14.01,2013-03-04 18:10:00,
2013-03-04 13:11:00,38.6,22.5,29.71,WSW,248,1.0,4.0,52,0.00,,---,0.00,130.00,VWS V14.01,2013-03-04 18:11:00,
2013-03-04 13:13:00,38.8,21.8,29.71,NW,311,1.0,2.0,50,0.00,,---,0.00,44.00,VWS V14.01,2013-03-04 18:13:00,
2013-03-04 13:14:00,38.8,22.2,29.71,NNW,344,3.0,3.0,51,0.00,,---,0.00,44.00,VWS V14.01,2013-03-04 18:14:00,
2013-03-04 13:16:00,38.8,22.2,29.71,NNW,341,2.0,5.0,51,0.00,,---,0.00,56.00,VWS V14.01,2013-03-04 18:16:00,
2013-03-04 13:18:00,38.8,22.2,29.71,NW,313,0.0,5.0,51,0.00,,---,0.00,76.00,VWS V14.01,2013-03-04 18:18:00,
2013-03-04 13:19:00,38.8,22.7,29.71,NW,313,0.0,5.0,52,0.00,,---,0.00,76.00,VWS V14.01,2013-03-04 18:19:00,
2013-03-04 13:21:00,38.9,22.8,29.72,SW,232,0.0,5.0,52,0.00,,---,0.00,104.00,VWS V14.01,2013-03-04 18:21:00,
2013-03-04 13:23:00,38.7,22.1,29.71,WSW,250,1.0,5.0,51,0.00,,---,0.00,95.00,VWS V14.01,2013-03-04 18:23:00,
2013-03-04 13:24:00,38.7,22.1,29.71,WSW,250,0.0,5.0,51,0.00,,---,0.00,95.00,VWS V14.01,2013-03-04 18:24:00,
2013-03-04 13:26:00,38.7,22.6,29.71,WSW,250,0.0,5.0,52,0.00,,---,0.00,105.00,VWS V14.01,2013-03-04 18:26:00,
2013-03-04 13:28:00,39.0,22.0,29.71,WSW,250,0.0,5.0,50,0.00,,---,0.00,58.00,VWS V14.01,2013-03-04 18:28:00,
2013-03-04 13:29:00,39.1,22.0,29.71,NE,49,1.0,5.0,50,0.00,,---,0.00,58.00,VWS V14.01,2013-03-04 18:29:00,
2013-03-04 13:34:00,39.1,22.5,29.71,SW,220,0.0,7.0,51,0.00,,---,0.00,56.00,VWS V14.01,2013-03-04 18:34:00,
2013-03-04 13:39:00,38.9,22.8,29.71,NNW,330,2.0,7.0,52,0.00,,---,0.00,65.00,VWS V14.01,2013-03-04 18:39:00,
2013-03-04 13:40:00,38.9,22.8,29.71,NNW,331,2.0,7.0,52,0.00,,---,0.00,62.00,VWS V14.01,2013-03-04 18:40:00,
2013-03-04 13:44:00,39.4,21.8,29.71,ENE,75,3.0,6.0,49,0.00,,---,0.00,95.00,VWS V14.01,2013-03-04 18:44:00,
2013-03-04 13:45:00,39.4,21.8,29.71,SSW,210,6.0,6.0,49,0.00,,---,0.00,88.00,VWS V14.01,2013-03-04 18:45:00,
2013-03-04 13:49:00,39.0,22.4,29.71,SSW,211,0.0,8.0,51,0.00,,---,0.00,53.00,VWS V14.01,2013-03-04 18:49:00,
2013-03-04 13:50:00,39.0,22.4,29.71,NW,323,0.0,8.0,51,0.00,,---,0.00,56.00,VWS V14.01,2013-03-04 18:50:00,
2013-03-04 13:54:00,39.0,22.4,29.71,West,267,0.0,3.0,51,0.00,,---,0.00,60.00,VWS V14.01,2013-03-04 18:54:00,
2013-03-04 13:55:00,39.0,22.4,29.71,West,268,0.0,3.0,51,0.00,,---,0.00,74.00,VWS V14.01,2013-03-04 18:55:00,
2013-03-04 14:00:00,39.8,22.7,29.71,North,355,1.0,6.0,50,0.00,,---,0.00,271.00,VWS V14.01,2013-03-04 19:00:00,
2013-03-04 14:05:00,39.7,22.1,29.71,North,360,2.0,6.0,49,0.00,,---,0.00,58.00,VWS V14.01,2013-03-04 19:05:00,
2013-03-04 14:10:00,39.4,21.8,29.71,NNW,346,1.0,6.0,49,0.00,,---,0.00,60.00,VWS V14.01,2013-03-04 19:10:00,
2013-03-04 14:15:00,39.3,21.8,29.71,NNW,334,1.0,5.0,49,0.00,,---,0.00,58.00,VWS V14.01,2013-03-04 19:15:00,
2013-03-04 14:20:00,39.5,21.9,29.71,NW,314,2.0,5.0,49,0.00,,---,0.00,128.00,VWS V14.01,2013-03-04 19:20:00,
2013-03-04 14:25:00,39.8,22.2,29.71,SW,215,0.0,5.0,49,0.00,,---,0.00,86.00,VWS V14.01,2013-03-04 19:25:00,
2013-03-04 14:26:00,39.8,22.2,29.71,SW,215,0.0,5.0,49,0.00,,---,0.00,127.00,VWS V14.01,2013-03-04 19:26:00,
2013-03-04 14:30:00,40.1,22.0,29.71,NNW,346,0.0,5.0,48,0.00,,---,0.00,371.00,VWS V14.01,2013-03-04 19:30:00,
2013-03-04 14:31:00,40.0,21.9,29.71,WSW,242,2.0,5.0,48,0.00,,---,0.00,371.00,VWS V14.01,2013-03-04 19:31:00,
2013-03-04 14:35:00,39.9,21.8,29.71,South,175,1.0,3.0,48,0.00,,---,0.00,308.00,VWS V14.01,2013-03-04 19:35:00,
2013-03-04 14:36:00,39.9,22.8,29.71,WSW,245,0.0,3.0,50,0.00,,---,0.00,308.00,VWS V14.01,2013-03-04 19:36:00,
2013-03-04 14:40:00,39.6,22.5,29.71,SW,225,3.0,6.0,50,0.00,,---,0.00,153.00,VWS V14.01,2013-03-04 19:40:00,
2013-03-04 14:41:00,39.6,22.0,29.71,SW,224,1.0,6.0,49,0.00,,---,0.00,153.00,VWS V14.01,2013-03-04 19:41:00,
2013-03-04 14:45:00,39.7,22.1,29.71,South,183,0.0,3.0,49,0.00,,---,0.00,176.00,VWS V14.01,2013-03-04 19:45:00,
2013-03-04 14:46:00,39.7,22.1,29.71,WNW,285,1.0,3.0,49,0.00,,---,0.00,176.00,VWS V14.01,2013-03-04 19:46:00,
2013-03-04 14:50:00,39.6,22.0,29.72,SSE,154,1.0,6.0,49,0.00,,---,0.00,292.00,VWS V14.01,2013-03-04 19:50:00,
2013-03-04 14:51:00,39.6,22.0,29.72,SSE,154,0.0,6.0,49,0.00,,---,0.00,292.00,VWS V14.01,2013-03-04 19:51:00,
2013-03-04 14:56:00,39.1,22.5,29.71,NW,317,1.0,6.0,51,0.00,,---,0.00,123.00,VWS V14.01,2013-03-04 19:56:00,
2013-03-04 15:01:00,39.4,21.8,29.71,NNW,329,4.0,8.0,49,0.00,,---,0.00,107.00,VWS V14.01,2013-03-04 20:01:00,
2013-03-04 15:06:00,39.1,22.0,29.72,North,10,1.0,5.0,50,0.00,,---,0.00,141.00,VWS V14.01,2013-03-04 20:06:00,
2013-03-04 15:11:00,39.1,22.0,29.71,WSW,241,5.0,7.0,50,0.00,,---,0.00,188.00,VWS V14.01,2013-03-04 20:11:00,
2013-03-04 15:16:00,38.9,22.3,29.71,SW,235,0.0,6.0,51,0.00,,---,0.00,144.00,VWS V14.01,2013-03-04 20:16:00,
2013-03-04 15:17:00,38.9,21.9,29.72,WSW,243,1.0,6.0,50,0.00,,---,0.00,181.00,VWS V14.01,2013-03-04 20:17:00,
2013-03-04 15:21:00,39.0,21.5,29.72,WSW,238,2.0,6.0,49,0.00,,---,0.00,158.00,VWS V14.01,2013-03-04 20:21:00,
2013-03-04 15:22:00,38.9,21.9,29.72,SW,231,4.0,7.0,50,0.00,,---,0.00,172.00,VWS V14.01,2013-03-04 20:22:00,
2013-03-04 15:26:00,39.1,23.0,29.72,South,173,0.0,6.0,52,0.00,,---,0.00,125.00,VWS V14.01,2013-03-04 20:26:00,
2013-03-04 15:27:00,39.2,22.6,29.72,SW,232,2.0,6.0,51,0.00,,---,0.00,125.00,VWS V14.01,2013-03-04 20:27:00,
2013-03-04 15:31:00,39.3,22.2,29.72,SW,216,0.0,6.0,50,0.00,,---,0.00,134.00,VWS V14.01,2013-03-04 20:31:00,
2013-03-04 15:32:00,39.3,22.2,29.72,NNW,336,2.0,6.0,50,0.00,,---,0.00,199.00,VWS V14.01,2013-03-04 20:32:00,
2013-03-04 15:36:00,38.9,21.9,29.72,WNW,296,0.0,5.0,50,0.00,,---,0.00,123.00,VWS V14.01,2013-03-04 20:36:00,
2013-03-04 15:37:00,38.9,22.3,29.72,SW,219,2.0,5.0,51,0.00,,---,0.00,102.00,VWS V14.01,2013-03-04 20:37:00,
2013-03-04 15:41:00,38.7,21.7,29.72,SW,221,2.0,5.0,50,0.00,,---,0.00,162.00,VWS V14.01,2013-03-04 20:41:00,
2013-03-04 15:42:00,38.6,21.6,29.72,WNW,282,3.0,5.0,50,0.00,,---,0.00,123.00,VWS V14.01,2013-03-04 20:42:00,
2013-03-04 15:46:00,38.7,23.1,29.72,WSW,242,0.0,4.0,53,0.00,,---,0.00,128.00,VWS V14.01,2013-03-04 20:46:00,
2013-03-04 15:47:00,38.7,22.6,29.72,WNW,296,0.0,4.0,52,0.00,,---,0.00,121.00,VWS V14.01,2013-03-04 20:47:00,
2013-03-04 15:51:00,38.6,22.5,29.72,West,273,1.0,4.0,52,0.00,,---,0.00,60.00,VWS V14.01,2013-03-04 20:51:00,
2013-03-04 15:52:00,38.5,22.4,29.72,SSW,213,1.0,2.0,52,0.00,,---,0.00,67.00,VWS V14.01,2013-03-04 20:52:00,
2013-03-04 15:53:00,38.5,22.0,29.72,SW,214,0.0,2.0,51,0.00,,---,0.00,67.00,VWS V14.01,2013-03-04 20:53:00,
2013-03-04 15:56:00,38.2,22.1,29.72,North,9,2.0,3.0,52,0.00,,---,0.00,153.00,VWS V14.01,2013-03-04 20:56:00,
2013-03-04 15:57:00,38.2,21.7,29.72,SSW,205,6.0,6.0,51,0.00,,---,0.00,114.00,VWS V14.01,2013-03-04 20:57:00,
2013-03-04 15:58:00,38.1,21.6,29.72,SW,229,0.0,6.0,51,0.00,,---,0.00,100.00,VWS V14.01,2013-03-04 20:58:00,
2013-03-04 16:01:00,37.9,21.4,29.72,WSW,254,1.0,7.0,51,0.00,,---,0.00,255.00,VWS V14.01,2013-03-04 21:01:00,
2013-03-04 16:02:00,37.9,21.9,29.72,WSW,244,2.0,3.0,52,0.00,,---,0.00,255.00,VWS V14.01,2013-03-04 21:02:00,
2013-03-04 16:03:00,37.9,21.4,29.72,WSW,248,0.0,3.0,51,0.00,,---,0.00,42.00,VWS V14.01,2013-03-04 21:03:00,
2013-03-04 16:06:00,37.9,22.3,29.72,WSW,248,0.0,3.0,53,0.00,,---,0.00,70.00,VWS V14.01,2013-03-04 21:06:00,
2013-03-04 16:07:00,37.9,22.3,29.72,SW,221,1.0,3.0,53,0.00,,---,0.00,98.00,VWS V14.01,2013-03-04 21:07:00,
2013-03-04 16:08:00,37.7,21.7,29.72,SW,233,1.0,4.0,52,0.00,,---,0.00,139.00,VWS V14.01,2013-03-04 21:08:00,
2013-03-04 16:11:00,37.5,21.5,29.72,SW,233,0.0,7.0,52,0.00,,---,0.00,151.00,VWS V14.01,2013-03-04 21:11:00,
2013-03-04 16:12:00,37.5,21.5,29.72,WSW,248,1.0,7.0,52,0.00,,---,0.00,123.00,VWS V14.01,2013-03-04 21:12:00,
2013-03-04 16:13:00,37.5,21.9,29.72,SW,233,3.0,3.0,53,0.00,,---,0.00,84.00,VWS V14.01,2013-03-04 21:13:00,
2013-03-04 16:16:00,37.6,21.6,29.73,NNW,328,0.0,4.0,52,0.00,,---,0.00,65.00,VWS V14.01,2013-03-04 21:16:00,
2013-03-04 16:17:00,37.6,21.6,29.73,West,262,1.0,4.0,52,0.00,,---,0.00,62.00,VWS V14.01,2013-03-04 21:17:00,
2013-03-04 16:18:00,37.6,21.6,29.73,SW,221,4.0,4.0,52,0.00,,---,0.00,70.00,VWS V14.01,2013-03-04 21:18:00,
2013-03-04 16:21:00,37.4,21.4,29.73,SW,225,3.0,4.0,52,0.00,,---,0.00,69.00,VWS V14.01,2013-03-04 21:21:00,
2013-03-04 16:22:00,37.4,21.4,29.73,SW,235,2.0,4.0,52,0.00,,---,0.00,63.00,VWS V14.01,2013-03-04 21:22:00,
2013-03-04 16:23:00,37.4,22.3,29.73,SSW,202,2.0,2.0,54,0.00,,---,0.00,60.00,VWS V14.01,2013-03-04 21:23:00,
2013-03-04 16:24:00,37.4,21.9,29.73,SSW,202,0.0,2.0,53,0.00,,---,0.00,56.00,VWS V14.01,2013-03-04 21:24:00,
2013-03-04 16:27:00,37.4,21.9,29.73,West,276,2.0,3.0,53,0.00,,---,0.00,54.00,VWS V14.01,2013-03-04 21:27:00,
2013-03-04 16:28:00,37.2,21.2,29.73,WNW,302,0.0,7.0,52,0.00,,---,0.00,56.00,VWS V14.01,2013-03-04 21:28:00,
2013-03-04 16:29:00,37.2,21.2,29.73,WNW,302,0.0,7.0,52,0.00,,---,0.00,54.00,VWS V14.01,2013-03-04 21:29:00,
2013-03-04 16:32:00,37.2,22.5,29.73,WSW,237,2.0,7.0,55,0.00,,---,0.00,40.00,VWS V14.01,2013-03-04 21:32:00,
2013-03-04 16:33:00,37.2,22.1,29.73,WSW,237,0.0,1.0,54,0.00,,---,0.00,42.00,VWS V14.01,2013-03-04 21:33:00,
2013-03-04 16:34:00,37.2,22.5,29.73,WSW,242,0.0,1.0,55,0.00,,---,0.00,42.00,VWS V14.01,2013-03-04 21:34:00,
2013-03-04 16:37:00,37.1,21.6,29.73,WNW,298,0.0,4.0,53,0.00,,---,0.00,44.00,VWS V14.01,2013-03-04 21:37:00,
2013-03-04 16:38:00,37.0,21.9,29.73,NNW,336,0.0,4.0,54,0.00,,---,0.00,44.00,VWS V14.01,2013-03-04 21:38:00,
2013-03-04 16:39:00,37.0,21.9,29.73,NNW,336,0.0,4.0,54,0.00,,---,0.00,44.00,VWS V14.01,2013-03-04 21:39:00,
2013-03-04 16:42:00,36.9,21.8,29.73,South,188,0.0,4.0,54,0.00,,---,0.00,39.00,VWS V14.01,2013-03-04 21:42:00,
2013-03-04 16:44:00,36.8,21.7,29.74,West,280,0.0,1.0,54,0.00,,---,0.00,39.00,VWS V14.01,2013-03-04 21:44:00,
2013-03-04 16:47:00,36.6,21.5,29.73,NW,323,0.0,4.0,54,0.00,,---,0.00,35.00,VWS V14.01,2013-03-04 21:47:00,
2013-03-04 16:49:00,36.5,21.5,29.73,NW,319,0.0,4.0,54,0.00,,---,0.00,35.00,VWS V14.01,2013-03-04 21:49:00,
2013-03-04 16:52:00,36.4,21.4,29.74,WSW,247,1.0,5.0,54,0.00,,---,0.00,26.00,VWS V14.01,2013-03-04 21:52:00,
2013-03-04 16:54:00,36.2,21.6,29.73,NNW,346,0.0,4.0,55,0.00,,---,0.00,25.00,VWS V14.01,2013-03-04 21:54:00,
2013-03-04 16:57:00,36.1,22.4,29.73,NNW,333,1.0,5.0,57,0.00,,---,0.00,26.00,VWS V14.01,2013-03-04 21:57:00,
2013-03-04 16:59:00,36.1,22.4,29.74,SSW,202,1.0,5.0,57,0.00,,---,0.00,25.00,VWS V14.01,2013-03-04 21:59:00,
2013-03-04 17:02:00,36.0,21.8,29.74,NNW,346,3.0,5.0,56,0.00,,---,0.00,19.00,VWS V14.01,2013-03-04 22:02:00,
2013-03-04 17:04:00,35.9,21.3,29.74,NNW,335,1.0,3.0,55,0.00,,---,0.00,19.00,VWS V14.01,2013-03-04 22:04:00,
2013-03-04 17:07:00,35.8,21.6,29.74,NNW,334,2.0,4.0,56,0.00,,---,0.00,21.00,VWS V14.01,2013-03-04 22:07:00,
2013-03-04 17:09:00,35.7,21.6,29.74,NW,304,0.0,4.0,56,0.00,,---,0.00,16.00,VWS V14.01,2013-03-04 22:09:00,
2013-03-04 17:12:00,35.6,21.9,29.74,WNW,290,0.0,0.0,57,0.00,,---,0.00,14.00,VWS V14.01,2013-03-04 22:12:00,
2013-03-04 17:14:00,35.5,21.8,29.75,West,261,0.0,3.0,57,0.00,,---,0.00,14.00,VWS V14.01,2013-03-04 22:14:00,
2013-03-04 17:17:00,35.4,21.3,29.75,SW,236,2.0,6.0,56,0.00,,---,0.00,12.00,VWS V14.01,2013-03-04 22:17:00,
2013-03-04 17:19:00,35.3,21.6,29.75,West,272,0.0,7.0,57,0.00,,---,0.00,12.00,VWS V14.01,2013-03-04 22:19:00,
2013-03-04 17:22:00,35.2,21.5,29.75,NNE,15,0.0,1.0,57,0.00,,---,0.00,12.00,VWS V14.01,2013-03-04 22:22:00,
2013-03-04 17:24:00,35.1,21.4,29.75,NNW,342,2.0,3.0,57,0.00,,---,0.00,11.00,VWS V14.01,2013-03-04 22:24:00,
2013-03-04 17:25:00,35.1,21.4,29.75,NNW,338,1.0,3.0,57,0.00,,---,0.00,11.00,VWS V14.01,2013-03-04 22:25:00,
2013-03-04 17:27:00,35.1,21.4,29.75,SW,225,0.0,5.0,57,0.00,,---,0.00,11.00,VWS V14.01,2013-03-04 22:27:00,
2013-03-04 17:28:00,35.0,21.3,29.75,SW,225,0.0,5.0,57,0.00,,---,0.00,11.00,VWS V14.01,2013-03-04 22:28:00,
2013-03-04 17:29:00,35.0,21.7,29.75,SSE,151,0.0,5.0,58,0.00,,---,0.00,9.00,VWS V14.01,2013-03-04 22:29:00,
2013-03-04 17:30:00,35.0,21.7,29.75,SW,229,0.0,5.0,58,0.00,,---,0.00,9.00,VWS V14.01,2013-03-04 22:30:00,
2013-03-04 17:32:00,34.9,21.6,29.75,North,355,0.0,5.0,58,0.00,,---,0.00,7.00,VWS V14.01,2013-03-04 22:32:00,
2013-03-04 17:33:00,34.9,21.6,29.75,North,355,0.0,5.0,58,0.00,,---,0.00,7.00,VWS V14.01,2013-03-04 22:33:00,
2013-03-04 17:34:00,34.8,21.5,29.75,WSW,241,3.0,5.0,58,0.00,,---,0.00,7.00,VWS V14.01,2013-03-04 22:34:00,
2013-03-04 17:35:00,34.8,22.0,29.75,WSW,254,1.0,5.0,59,0.00,,---,0.00,7.00,VWS V14.01,2013-03-04 22:35:00,
2013-03-04 17:37:00,34.7,21.0,29.76,North,355,5.0,7.0,57,0.00,,---,0.00,5.00,VWS V14.01,2013-03-04 22:37:00,
2013-03-04 17:38:00,34.7,21.0,29.76,SW,236,2.0,7.0,57,0.00,,---,0.00,5.00,VWS V14.01,2013-03-04 22:38:00,
2013-03-04 17:40:00,34.6,21.4,29.76,NW,319,1.0,7.0,58,0.00,,---,0.00,5.00,VWS V14.01,2013-03-04 22:40:00,
2013-03-04 17:42:00,34.6,21.0,29.76,WNW,292,0.0,2.0,57,0.00,,---,0.00,0.00,VWS V14.01,2013-03-04 22:42:00,
2013-03-04 17:43:00,34.6,21.0,29.76,SW,228,2.0,3.0,57,0.00,,---,0.00,0.00,VWS V14.01,2013-03-04 22:43:00,
2013-03-04 17:45:00,34.5,20.9,29.76,North,350,1.0,3.0,57,0.00,,---,0.00,0.00,VWS V14.01,2013-03-04 22:45:00,
2013-03-04 17:48:00,34.4,21.2,29.76,NW,314,0.0,3.0,58,0.00,,---,0.00,0.00,VWS V14.01,2013-03-04 22:48:00,
2013-03-04 17:50:00,34.3,21.1,29.76,West,277,0.0,3.0,58,0.00,,---,0.00,0.00,VWS V14.01,2013-03-04 22:50:00,
2013-03-04 17:52:00,34.3,21.1,29.76,SW,235,0.0,2.0,58,0.00,,---,0.00,0.00,VWS V14.01,2013-03-04 22:52:00,
2013-03-04 17:53:00,34.3,21.1,29.76,WSW,254,0.0,4.0,58,0.00,,---,0.00,0.00,VWS V14.01,2013-03-04 22:53:00,
2013-03-04 17:55:00,34.2,21.0,29.76,WNW,292,1.0,4.0,58,0.00,,---,0.00,0.00,VWS V14.01,2013-03-04 22:55:00,
2013-03-04 17:56:00,34.2,21.0,29.76,SSW,211,2.0,4.0,58,0.00,,---,0.00,0.00,VWS V14.01,2013-03-04 22:56:00,
2013-03-04 17:58:00,34.2,21.4,29.76,SW,221,1.0,4.0,59,0.00,,---,0.00,0.00,VWS V14.01,2013-03-04 22:58:00,
2013-03-04 17:59:00,34.2,21.4,29.77,SW,221,1.0,4.0,59,0.00,,---,0.00,0.00,VWS V14.01,2013-03-04 22:59:00,
2013-03-04 18:00:00,34.1,20.9,29.76,SW,223,0.0,4.0,58,0.00,,---,0.00,0.00,VWS V14.01,2013-03-04 23:00:00,
2013-03-04 18:01:00,34.1,21.3,29.76,SW,223,0.0,4.0,59,0.00,,---,0.00,0.00,VWS V14.01,2013-03-04 23:01:00,
2013-03-04 18:03:00,34.1,21.3,29.77,WSW,255,0.0,6.0,59,0.00,,---,0.00,0.00,VWS V14.01,2013-03-04 23:03:00,
2013-03-04 18:04:00,34.0,21.2,29.76,WSW,255,0.0,6.0,59,0.00,,---,0.00,0.00,VWS V14.01,2013-03-04 23:04:00,
2013-03-04 18:05:00,33.9,21.1,29.77,NNW,348,1.0,6.0,59,0.00,,---,0.00,0.00,VWS V14.01,2013-03-04 23:05:00,
2013-03-04 18:06:00,33.9,21.1,29.77,SW,235,2.0,6.0,59,0.00,,---,0.00,0.00,VWS V14.01,2013-03-04 23:06:00,
2013-03-04 18:08:00,33.9,21.1,29.77,West,260,0.0,6.0,59,0.00,,---,0.00,0.00,VWS V14.01,2013-03-04 23:08:00,
2013-03-04 18:09:00,33.9,21.1,29.77,West,259,0.0,6.0,59,0.00,,---,0.00,0.00,VWS V14.01,2013-03-04 23:09:00,
2013-03-04 18:11:00,33.8,21.0,29.77,WSW,252,0.0,6.0,59,0.00,,---,0.00,0.00,VWS V14.01,2013-03-04 23:11:00,
2013-03-04 18:13:00,33.8,21.0,29.77,SW,227,2.0,5.0,59,0.00,,---,0.00,0.00,VWS V14.01,2013-03-04 23:13:00,
2013-03-04 18:14:00,33.7,20.9,29.77,WSW,245,0.0,5.0,59,0.00,,---,0.00,0.00,VWS V14.01,2013-03-04 23:14:00,
2013-03-04 18:16:00,33.6,21.2,29.77,WSW,250,0.0,5.0,60,0.00,,---,0.00,0.00,VWS V14.01,2013-03-04 23:16:00,
2013-03-04 18:18:00,33.5,20.7,29.77,NNW,340,1.0,5.0,59,0.00,,---,0.00,0.00,VWS V14.01,2013-03-04 23:18:00,
2013-03-04 18:19:00,33.5,21.1,29.77,NNW,340,0.0,5.0,60,0.00,,---,0.00,0.00,VWS V14.01,2013-03-04 23:19:00,
2013-03-04 18:21:00,33.4,21.4,29.77,NNW,340,0.0,5.0,61,0.00,,---,0.00,0.00,VWS V14.01,2013-03-04 23:21:00,
2013-03-04 18:23:00,33.3,20.5,29.77,SW,218,0.0,3.0,59,0.00,,---,0.00,0.00,VWS V14.01,2013-03-04 23:23:00,
2013-03-04 18:24:00,33.3,20.5,29.77,WNW,285,0.0,3.0,59,0.00,,---,0.00,0.00,VWS V14.01,2013-03-04 23:24:00,
2013-03-04 18:26:00,33.2,20.8,29.77,WSW,237,1.0,3.0,60,0.00,,---,0.00,0.00,VWS V14.01,2013-03-04 23:26:00,
2013-03-04 18:28:00,33.2,20.8,29.78,WSW,237,0.0,3.0,60,0.00,,---,0.00,0.00,VWS V14.01,2013-03-04 23:28:00,
2013-03-04 18:30:00,33.1,20.4,29.78,WSW,258,1.0,3.0,59,0.00,,---,0.00,0.00,VWS V14.01,2013-03-04 23:30:00,
2013-03-04 18:31:00,33.1,20.4,29.78,NNW,345,3.0,4.0,59,0.00,,---,0.00,0.00,VWS V14.01,2013-03-04 23:31:00,
2013-03-04 18:32:00,33.1,20.4,29.78,WNW,284,0.0,4.0,59,0.00,,---,0.00,0.00,VWS V14.01,2013-03-04 23:32:00,
2013-03-04 18:33:00,33.0,20.6,29.78,West,266,1.0,3.0,60,0.00,,---,0.00,0.00,VWS V14.01,2013-03-04 23:33:00,
2013-03-04 18:35:00,33.0,20.6,29.78,NNW,341,0.0,3.0,60,0.00,,---,0.00,0.00,VWS V14.01,2013-03-04 23:35:00,
2013-03-04 18:36:00,32.9,20.9,29.78,NNW,344,2.0,3.0,61,0.00,,---,0.00,0.00,VWS V14.01,2013-03-04 23:36:00,
2013-03-04 18:37:00,32.9,20.5,29.78,NW,307,0.0,3.0,60,0.00,,---,0.00,0.00,VWS V14.01,2013-03-04 23:37:00,
2013-03-04 18:38:00,32.9,20.5,29.78,SW,215,0.0,3.0,60,0.00,,---,0.00,0.00,VWS V14.01,2013-03-04 23:38:00,
2013-03-04 18:40:00,32.8,20.5,29.78,WNW,300,0.0,3.0,60,0.00,,---,0.00,0.00,VWS V14.01,2013-03-04 23:40:00,
2013-03-04 18:41:00,32.8,20.5,29.78,WNW,300,0.0,3.0,60,0.00,,---,0.00,0.00,VWS V14.01,2013-03-04 23:41:00,
2013-03-04 18:42:00,32.8,20.9,29.78,WNW,300,0.0,3.0,61,0.00,,---,0.00,0.00,VWS V14.01,2013-03-04 23:42:00,
2013-03-04 18:43:00,32.7,20.4,29.79,North,351,0.0,1.0,60,0.00,,---,0.00,0.00,VWS V14.01,2013-03-04 23:43:00,
2013-03-04 18:45:00,32.7,20.8,29.79,NW,319,0.0,2.0,61,0.00,,---,0.00,0.00,VWS V14.01,2013-03-04 23:45:00,
2013-03-04 18:46:00,32.6,20.7,29.79,NW,318,0.0,2.0,61,0.00,,---,0.00,0.00,VWS V14.01,2013-03-04 23:46:00,
2013-03-04 18:47:00,32.6,21.0,29.79,NW,318,0.0,2.0,62,0.00,,---,0.00,0.00,VWS V14.01,2013-03-04 23:47:00,
2013-03-04 18:48:00,32.5,20.6,29.79,WSW,240,1.0,2.0,61,0.00,,---,0.00,0.00,VWS V14.01,2013-03-04 23:48:00,
2013-03-04 18:50:00,32.5,20.6,29.79,West,273,0.0,2.0,61,0.00,,---,0.00,0.00,VWS V14.01,2013-03-04 23:50:00,
2013-03-04 18:51:00,32.4,20.9,29.79,West,273,0.0,2.0,62,0.00,,---,0.00,0.00,VWS V14.01,2013-03-04 23:51:00,
2013-03-04 18:52:00,32.4,20.5,29.79,SSW,205,0.0,2.0,61,0.00,,---,0.00,0.00,VWS V14.01,2013-03-04 23:52:00,
2013-03-04 18:53:00,32.3,20.4,29.78,NW,306,1.0,4.0,61,0.00,,---,0.00,0.00,VWS V14.01,2013-03-04 23:53:00,
2013-03-04 18:55:00,32.3,20.4,29.79,North,355,2.0,4.0,61,0.00,,---,0.00,0.00,VWS V14.01,2013-03-04 23:55:00,
2013-03-04 18:56:00,32.3,20.8,29.79,SW,219,1.0,4.0,62,0.00,,---,0.00,0.00,VWS V14.01,2013-03-04 23:56:00,
2013-03-04 18:57:00,32.3,20.8,29.79,West,267,0.0,4.0,62,0.00,,---,0.00,0.00,VWS V14.01,2013-03-04 23:57:00,
2013-03-04 18:59:00,32.2,20.3,29.79,West,261,1.0,4.0,61,0.00,,---,0.00,0.00,VWS V14.01,2013-03-04 23:59:00,
2013-03-04 19:00:00,32.1,20.6,29.79,West,275,0.0,4.0,62,0.00,,---,0.00,0.00,VWS V14.01,2013-03-05 00:00:00,
2013-03-04 19:01:00,32.1,20.6,29.79,ENE,65,0.0,4.0,62,0.00,,---,0.00,0.00,VWS V14.01,2013-03-05 00:01:00,
2013-03-04 19:02:00,32.1,20.2,29.79,NNW,336,0.0,1.0,61,0.00,,---,0.00,0.00,VWS V14.01,2013-03-05 00:02:00,
2013-03-04 19:04:00,32.0,20.9,29.78,NNW,336,1.0,1.0,63,0.00,,---,0.00,0.00,VWS V14.01,2013-03-05 00:04:00,
2013-03-04 19:05:00,32.0,20.1,29.79,WSW,248,0.0,3.0,61,0.00,,---,0.00,0.00,VWS V14.01,2013-03-05 00:05:00,
2013-03-04 19:06:00,31.9,20.4,29.79,WSW,248,0.0,3.0,62,0.00,,---,0.00,0.00,VWS V14.01,2013-03-05 00:06:00,
2013-03-04 19:07:00,32.0,20.5,29.79,WSW,248,0.0,3.0,62,0.00,,---,0.00,0.00,VWS V14.01,2013-03-05 00:07:00,
2013-03-04 19:09:00,31.9,20.0,29.79,NW,315,0.0,4.0,61,0.00,,---,0.00,0.00,VWS V14.01,2013-03-05 00:09:00,
2013-03-04 19:10:00,31.9,20.0,29.79,NW,316,0.0,4.0,61,0.00,,---,0.00,0.00,VWS V14.01,2013-03-05 00:10:00,
2013-03-04 19:12:00,31.9,20.4,29.79,NW,316,0.0,4.0,62,0.00,,---,0.00,0.00,VWS V14.01,2013-03-05 00:12:00,
2013-03-04 19:14:00,31.9,20.4,29.79,WSW,254,0.0,1.0,62,0.00,,---,0.00,0.00,VWS V14.01,2013-03-05 00:14:00,
2013-03-04 19:15:00,31.7,20.6,29.79,WSW,251,1.0,1.0,63,0.00,,---,0.00,0.00,VWS V14.01,2013-03-05 00:15:00,
2013-03-04 19:17:00,31.7,20.6,29.79,WSW,238,1.0,2.0,63,0.00,,---,0.00,0.00,VWS V14.01,2013-03-05 00:17:00,
2013-03-04 19:19:00,31.7,20.2,29.79,SW,232,2.0,3.0,62,0.00,,---,0.00,0.00,VWS V14.01,2013-03-05 00:19:00,
2013-03-04 19:21:00,31.6,20.1,29.79,WNW,288,0.0,3.0,62,0.00,,---,0.00,0.00,VWS V14.01,2013-03-05 00:21:00,
2013-03-04 19:22:00,31.6,19.7,29.79,NW,309,0.0,3.0,61,0.00,,---,0.00,0.00,VWS V14.01,2013-03-05 00:22:00,
2013-03-04 19:24:00,31.6,20.5,29.79,NW,306,0.0,1.0,63,0.00,,---,0.00,0.00,VWS V14.01,2013-03-05 00:24:00,
2013-03-04 19:26:00,31.5,20.4,29.79,NW,304,0.0,1.0,63,0.00,,---,0.00,0.00,VWS V14.01,2013-03-05 00:26:00,
2013-03-04 19:27:00,31.5,20.0,29.79,WNW,285,1.0,2.0,62,0.00,,---,0.00,0.00,VWS V14.01,2013-03-05 00:27:00,
2013-03-04 19:28:00,31.5,20.4,29.79,NW,319,0.0,2.0,63,0.00,,---,0.00,0.00,VWS V14.01,2013-03-05 00:28:00,
2013-03-04 19:30:00,31.4,20.3,29.79,NW,319,0.0,2.0,63,0.00,,---,0.00,0.00,VWS V14.01,2013-03-05 00:30:00,
2013-03-04 19:31:00,31.4,20.3,29.79,NE,44,1.0,2.0,63,0.00,,---,0.00,0.00,VWS V14.01,2013-03-05 00:31:00,
2013-03-04 19:32:00,31.4,20.3,29.79,NNE,26,1.0,1.0,63,0.00,,---,0.00,0.00,VWS V14.01,2013-03-05 00:32:00,
2013-03-04 19:33:00,31.4,19.9,29.79,NNE,26,0.0,1.0,62,0.00,,---,0.00,0.00,VWS V14.01,2013-03-05 00:33:00,
2013-03-04 19:35:00,31.4,20.6,29.80,NNE,26,0.0,1.0,64,0.00,,---,0.00,0.00,VWS V14.01,2013-03-05 00:35:00,
2013-03-04 19:36:00,31.3,20.5,29.79,NNE,22,2.0,2.0,64,0.00,,---,0.00,0.00,VWS V14.01,2013-03-05 00:36:00,
2013-03-04 19:37:00,31.3,20.5,29.80,WSW,238,0.0,2.0,64,0.00,,---,0.00,0.00,VWS V14.01,2013-03-05 00:37:00,
2013-03-04 19:38:00,31.3,20.5,29.80,WSW,238,0.0,2.0,64,0.00,,---,0.00,0.00,VWS V14.01,2013-03-05 00:38:00,
2013-03-04 19:40:00,31.2,20.8,29.80,SW,219,4.0,4.0,65,0.00,,---,0.00,0.00,VWS V14.01,2013-03-05 00:40:00,
2013-03-04 19:41:00,31.1,20.4,29.80,WNW,300,0.0,4.0,64,0.00,,---,0.00,0.00,VWS V14.01,2013-03-05 00:41:00,
2013-03-04 19:42:00,31.1,20.4,29.80,North,350,2.0,4.0,64,0.00,,---,0.00,0.00,VWS V14.01,2013-03-05 00:42:00,
2013-03-04 19:43:00,31.1,20.4,29.80,North,350,0.0,4.0,64,0.00,,---,0.00,0.00,VWS V14.01,2013-03-05 00:43:00,
2013-03-04 19:45:00,31.1,20.4,29.80,SE,131,0.0,4.0,64,0.00,,---,0.00,0.00,VWS V14.01,2013-03-05 00:45:00,
2013-03-04 19:46:00,31.1,20.4,29.80,SE,131,0.0,4.0,64,0.00,,---,0.00,0.00,VWS V14.01,2013-03-05 00:46:00,
2013-03-04 19:47:00,31.1,20.4,29.80,ENE,67,0.0,4.0,64,0.00,,---,0.00,0.00,VWS V14.01,2013-03-05 00:47:00,
2013-03-04 19:48:00,31.0,20.3,29.80,ENE,67,0.0,4.0,64,0.00,,---,0.00,0.00,VWS V14.01,2013-03-05 00:48:00,
2013-03-04 19:50:00,31.0,20.6,29.80,SW,215,1.0,4.0,65,0.00,,---,0.00,0.00,VWS V14.01,2013-03-05 00:50:00,
2013-03-04 19:51:00,31.0,20.3,29.80,SW,215,0.0,4.0,64,0.00,,---,0.00,0.00,VWS V14.01,2013-03-05 00:51:00,
2013-03-04 19:52:00,31.0,20.6,29.80,SW,215,0.0,0.0,65,0.00,,---,0.00,0.00,VWS V14.01,2013-03-05 00:52:00,
2013-03-04 19:53:00,31.0,20.6,29.80,SW,215,0.0,1.0,65,0.00,,---,0.00,0.00,VWS V14.01,2013-03-05 00:53:00,
2013-03-04 19:55:00,31.0,20.6,29.80,ESE,117,1.0,1.0,65,0.00,,---,0.00,0.00,VWS V14.01,2013-03-05 00:55:00,
2013-03-04 19:56:00,30.9,20.2,29.80,North,5,0.0,2.0,64,0.00,,---,0.00,0.00,VWS V14.01,2013-03-05 00:56:00,
2013-03-04 19:57:00,30.9,20.2,29.80,North,5,0.0,2.0,64,0.00,,---,0.00,0.00,VWS V14.01,2013-03-05 00:57:00,
2013-03-04 19:59:00,30.9,20.2,29.80,North,5,0.0,2.0,64,0.00,,---,0.00,0.00,VWS V14.01,2013-03-05 00:59:00,
2013-03-04 20:00:00,30.9,20.2,29.80,North,5,0.0,2.0,64,0.00,,---,0.00,0.00,VWS V14.01,2013-03-05 01:00:00,
2013-03-04 20:02:00,30.9,20.2,29.80,NNW,345,2.0,4.0,64,0.00,,---,0.00,0.00,VWS V14.01,2013-03-05 01:02:00,
2013-03-04 20:04:00,30.8,19.7,29.80,ENE,77,0.0,1.0,63,0.00,,---,0.00,0.00,VWS V14.01,2013-03-05 01:04:00,
2013-03-04 20:05:00,30.9,20.2,29.81,NNE,16,2.0,4.0,64,0.00,,---,0.00,0.00,VWS V14.01,2013-03-05 01:05:00,
2013-03-04 20:07:00,30.9,20.5,29.80,SW,227,4.0,5.0,65,0.00,,---,0.00,0.00,VWS V14.01,2013-03-05 01:07:00,
2013-03-04 20:08:00,30.8,20.4,29.81,SW,233,2.0,5.0,65,0.00,,---,0.00,0.00,VWS V14.01,2013-03-05 01:08:00,
2013-03-04 20:09:00,30.8,20.4,29.81,SW,233,0.0,5.0,65,0.00,,---,0.00,0.00,VWS V14.01,2013-03-05 01:09:00,
2013-03-04 20:10:00,30.8,20.1,29.81,SW,234,2.0,5.0,64,0.00,,---,0.00,0.00,VWS V14.01,2013-03-05 01:10:00,
2013-03-04 20:12:00,30.8,20.4,29.81,South,184,0.0,5.0,65,0.00,,---,0.00,0.00,VWS V14.01,2013-03-05 01:12:00,
2013-03-04 20:13:00,30.8,20.1,29.81,South,184,0.0,0.0,64,0.00,,---,0.00,0.00,VWS V14.01,2013-03-05 01:13:00,
2013-03-04 20:14:00,30.8,20.4,29.81,NNW,331,0.0,2.0,65,0.00,,---,0.00,0.00,VWS V14.01,2013-03-05 01:14:00,
2013-03-04 20:15:00,30.7,20.3,29.81,NNW,329,0.0,3.0,65,0.00,,---,0.00,0.00,VWS V14.01,2013-03-05 01:15:00,
2013-03-04 20:17:00,30.7,20.3,29.81,SW,228,0.0,3.0,65,0.00,,---,0.00,0.00,VWS V14.01,2013-03-05 01:17:00,
2013-03-04 20:18:00,30.7,20.0,29.81,SW,228,1.0,3.0,64,0.00,,---,0.00,0.00,VWS V14.01,2013-03-05 01:18:00,
2013-03-04 20:19:00,30.7,20.0,29.82,SW,228,0.0,3.0,64,0.00,,---,0.00,0.00,VWS V14.01,2013-03-05 01:19:00,
2013-03-04 20:20:00,30.7,20.0,29.81,SW,228,0.0,3.0,64,0.00,,---,0.00,0.00,VWS V14.01,2013-03-05 01:20:00,
2013-03-04 20:22:00,30.7,20.3,29.82,SW,234,2.0,2.0,65,0.00,,---,0.00,0.00,VWS V14.01,2013-03-05 01:22:00,
2013-03-04 20:23:00,30.7,20.3,29.82,WNW,286,0.0,2.0,65,0.00,,---,0.00,0.00,VWS V14.01,2013-03-05 01:23:00,
2013-03-04 20:24:00,30.7,20.3,29.82,West,263,0.0,2.0,65,0.00,,---,0.00,0.00,VWS V14.01,2013-03-05 01:24:00,
2013-03-04 20:25:00,30.7,20.3,29.82,SW,224,0.0,4.0,65,0.00,,---,0.00,0.00,VWS V14.01,2013-03-05 01:25:00,
2013-03-04 20:27:00,30.6,19.9,29.82,SW,235,2.0,4.0,64,0.00,,---,0.00,0.00,VWS V14.01,2013-03-05 01:27:00,
2013-03-04 20:28:00,30.6,20.2,29.82,NW,306,1.0,4.0,65,0.00,,---,0.00,0.00,VWS V14.01,2013-03-05 01:28:00,
2013-03-04 20:29:00,30.6,20.2,29.82,SSW,195,0.0,4.0,65,0.00,,---,0.00,0.00,VWS V14.01,2013-03-05 01:29:00,
2013-03-04 20:31:00,30.6,19.9,29.82,West,272,0.0,4.0,64,0.00,,---,0.00,0.00,VWS V14.01,2013-03-05 01:31:00,
2013-03-04 20:32:00,30.6,20.2,29.82,SW,236,2.0,2.0,65,0.00,,---,0.00,0.00,VWS V14.01,2013-03-05 01:32:00,
2013-03-04 20:33:00,30.6,20.6,29.82,NNW,346,2.0,3.0,66,0.00,,---,0.00,0.00,VWS V14.01,2013-03-05 01:33:00,
2013-03-04 20:34:00,30.6,20.2,29.82,WSW,255,1.0,3.0,65,0.00,,---,0.00,0.00,VWS V14.01,2013-03-05 01:34:00,
2013-03-04 20:35:00,30.6,20.2,29.82,NW,316,1.0,3.0,65,0.00,,---,0.00,0.00,VWS V14.01,2013-03-05 01:35:00,
2013-03-04 20:37:00,30.6,19.9,29.82,NNW,338,0.0,3.0,64,0.00,,---,0.00,0.00,VWS V14.01,2013-03-05 01:37:00,
2013-03-04 20:38:00,30.6,19.9,29.82,SW,231,3.0,3.0,64,0.00,,---,0.00,0.00,VWS V14.01,2013-03-05 01:38:00,
2013-03-04 20:39:00,30.6,20.2,29.82,SW,233,0.0,5.0,65,0.00,,---,0.00,0.00,VWS V14.01,2013-03-05 01:39:00,
2013-03-04 20:41:00,30.6,20.2,29.82,SW,234,1.0,5.0,65,0.00,,---,0.00,0.00,VWS V14.01,2013-03-05 01:41:00,
2013-03-04 20:42:00,30.6,20.2,29.82,SW,234,0.0,0.0,65,0.00,,---,0.00,0.00,VWS V14.01,2013-03-05 01:42:00,
2013-03-04 20:43:00,30.6,19.9,29.82,NW,319,1.0,3.0,64,0.00,,---,0.00,0.00,VWS V14.01,2013-03-05 01:43:00,
2013-03-04 20:44:00,30.6,20.2,29.82,WNW,296,0.0,3.0,65,0.00,,---,0.00,0.00,VWS V14.01,2013-03-05 01:44:00,
2013-03-04 20:46:00,30.6,19.9,29.83,SW,217,0.0,3.0,64,0.00,,---,0.00,0.00,VWS V14.01,2013-03-05 01:46:00,
2013-03-04 20:47:00,30.6,20.2,29.83,SW,217,0.0,3.0,65,0.00,,---,0.00,0.00,VWS V14.01,2013-03-05 01:47:00,
2013-03-04 20:48:00,30.6,20.2,29.83,SW,217,1.0,3.0,65,0.00,,---,0.00,0.00,VWS V14.01,2013-03-05 01:48:00,
2013-03-04 20:49:00,30.6,20.2,29.83,SW,217,0.0,3.0,65,0.00,,---,0.00,0.00,VWS V14.01,2013-03-05 01:49:00,
2013-03-04 20:51:00,30.6,20.2,29.83,SW,217,0.0,3.0,65,0.00,,---,0.00,0.00,VWS V14.01,2013-03-05 01:51:00,
2013-03-04 20:52:00,30.6,20.2,29.83,NW,324,2.0,2.0,65,0.00,,---,0.00,0.00,VWS V14.01,2013-03-05 01:52:00,
2013-03-04 20:53:00,30.6,20.2,29.83,NE,38,2.0,2.0,65,0.00,,---,0.00,0.00,VWS V14.01,2013-03-05 01:53:00,
2013-03-04 20:54:00,30.6,20.2,29.83,NNW,339,2.0,3.0,65,0.00,,---,0.00,0.00,VWS V14.01,2013-03-05 01:54:00,
2013-03-04 20:56:00,30.6,20.2,29.83,SW,220,2.0,3.0,65,0.00,,---,0.00,0.00,VWS V14.01,2013-03-05 01:56:00,
2013-03-04 20:57:00,30.6,20.6,29.83,SW,221,0.0,3.0,66,0.00,,---,0.00,0.00,VWS V14.01,2013-03-05 01:57:00,
2013-03-04 20:58:00,30.6,20.6,29.83,SW,221,0.0,3.0,66,0.00,,---,0.00,0.00,VWS V14.01,2013-03-05 01:58:00,
2013-03-04 20:59:00,30.6,20.2,29.83,NNW,332,0.0,3.0,65,0.00,,---,0.00,0.00,VWS V14.01,2013-03-05 01:59:00,
2013-03-04 21:01:00,30.6,20.2,29.83,North,351,0.0,3.0,65,0.00,,---,0.00,0.00,VWS V14.01,2013-03-05 02:01:00,
2013-03-04 21:02:00,30.5,20.1,29.83,North,355,0.0,1.0,65,0.00,,---,0.00,0.00,VWS V14.01,2013-03-05 02:02:00,
2013-03-04 21:03:00,30.5,20.1,29.83,NW,324,0.0,1.0,65,0.00,,---,0.00,0.00,VWS V14.01,2013-03-05 02:03:00,
2013-03-04 21:05:00,30.6,20.2,29.83,ESE,122,2.0,5.0,65,0.00,,---,0.00,0.00,VWS V14.01,2013-03-05 02:05:00,
2013-03-04 21:06:00,30.6,20.2,29.83,West,264,0.0,5.0,65,0.00,,---,0.00,0.00,VWS V14.01,2013-03-05 02:06:00,
2013-03-04 21:08:00,30.5,20.1,29.83,SE,128,0.0,5.0,65,0.00,,---,0.00,0.00,VWS V14.01,2013-03-05 02:08:00,
2013-03-04 21:10:00,30.6,20.6,29.83,East,94,0.0,5.0,66,0.00,,---,0.00,0.00,VWS V14.01,2013-03-05 02:10:00,
2013-03-04 21:11:00,30.6,20.6,29.83,NNE,33,0.0,5.0,66,0.00,,---,0.00,0.00,VWS V14.01,2013-03-05 02:11:00,
2013-03-04 21:13:00,30.6,20.2,29.83,North,10,0.0,2.0,65,0.00,,---,0.00,0.00,VWS V14.01,2013-03-05 02:13:00,
2013-03-04 21:15:00,30.6,20.2,29.84,NW,308,1.0,2.0,65,0.00,,---,0.00,0.00,VWS V14.01,2013-03-05 02:15:00,
2013-03-04 21:16:00,30.6,20.2,29.84,NNE,15,0.0,2.0,65,0.00,,---,0.00,0.00,VWS V14.01,2013-03-05 02:16:00,
2013-03-04 21:18:00,30.6,20.2,29.84,North,355,1.0,2.0,65,0.00,,---,0.00,0.00,VWS V14.01,2013-03-05 02:18:00,
2013-03-04 21:20:00,30.6,20.2,29.83,North,355,0.0,2.0,65,0.00,,---,0.00,0.00,VWS V14.01,2013-03-05 02:20:00,
2013-03-04 21:21:00,30.6,20.2,29.83,North,355,0.0,2.0,65,0.00,,---,0.00,0.00,VWS V14.01,2013-03-05 02:21:00,
2013-03-04 21:23:00,30.6,20.2,29.84,WNW,290,0.0,2.0,65,0.00,,---,0.00,0.00,VWS V14.01,2013-03-05 02:23:00,
2013-03-04 21:25:00,30.6,20.2,29.84,North,5,2.0,5.0,65,0.00,,---,0.00,0.00,VWS V14.01,2013-03-05 02:25:00,
2013-03-04 21:26:00,30.6,20.2,29.84,North,5,0.0,5.0,65,0.00,,---,0.00,0.00,VWS V14.01,2013-03-05 02:26:00,
2013-03-04 21:28:00,30.6,20.2,29.84,SW,215,1.0,5.0,65,0.00,,---,0.00,0.00,VWS V14.01,2013-03-05 02:28:00,
2013-03-04 21:30:00,30.7,20.3,29.84,NNW,339,1.0,5.0,65,0.00,,---,0.00,0.00,VWS V14.01,2013-03-05 02:30:00,
2013-03-04 21:31:00,30.7,20.3,29.84,NNW,339,0.0,5.0,65,0.00,,---,0.00,0.00,VWS V14.01,2013-03-05 02:31:00,
2013-03-04 21:33:00,30.7,20.3,29.84,WSW,257,1.0,2.0,65,0.00,,---,0.00,0.00,VWS V14.01,2013-03-05 02:33:00,
2013-03-04 21:35:00,30.7,20.3,29.84,WSW,248,0.0,2.0,65,0.00,,---,0.00,0.00,VWS V14.01,2013-03-05 02:35:00,
2013-03-04 21:36:00,30.7,20.3,29.84,NNW,338,0.0,2.0,65,0.00,,---,0.00,0.00,VWS V14.01,2013-03-05 02:36:00,
2013-03-04 21:38:00,30.7,20.3,29.84,NNW,329,0.0,4.0,65,0.00,,---,0.00,0.00,VWS V14.01,2013-03-05 02:38:00,
2013-03-04 21:40:00,30.8,20.4,29.84,SW,228,0.0,4.0,65,0.00,,---,0.00,0.00,VWS V14.01,2013-03-05 02:40:00,
2013-03-04 21:41:00,30.7,20.7,29.84,West,263,2.0,4.0,66,0.00,,---,0.00,0.00,VWS V14.01,2013-03-05 02:41:00,
2013-03-04 21:43:00,30.7,20.3,29.84,NNW,344,0.0,1.0,65,0.00,,---,0.00,0.00,VWS V14.01,2013-03-05 02:43:00,
2013-03-04 21:45:00,30.7,20.3,29.84,NE,40,0.0,1.0,65,0.00,,---,0.00,0.00,VWS V14.01,2013-03-05 02:45:00,
2013-03-04 21:47:00,30.7,20.7,29.84,NE,40,0.0,1.0,66,0.00,,---,0.00,0.00,VWS V14.01,2013-03-05 02:47:00,
2013-03-04 21:48:00,30.7,20.7,29.84,NE,40,0.0,1.0,66,0.00,,---,0.00,0.00,VWS V14.01,2013-03-05 02:48:00,
2013-03-04 21:50:00,30.7,20.3,29.84,NNE,17,2.0,4.0,65,0.00,,---,0.00,0.00,VWS V14.01,2013-03-05 02:50:00,
2013-03-04 21:52:00,30.7,20.3,29.84,ESE,122,0.0,4.0,65,0.00,,---,0.00,0.00,VWS V14.01,2013-03-05 02:52:00,
2013-03-04 21:53:00,30.7,20.3,29.84,WSW,250,2.0,2.0,65,0.00,,---,0.00,0.00,VWS V14.01,2013-03-05 02:53:00,
2013-03-04 21:54:00,30.7,20.3,29.84,WSW,248,1.0,2.0,65,0.00,,---,0.00,0.00,VWS V14.01,2013-03-05 02:54:00,
2013-03-04 21:55:00,30.7,20.3,29.84,NNW,333,0.0,2.0,65,0.00,,---,0.00,0.00,VWS V14.01,2013-03-05 02:55:00,
2013-03-04 21:57:00,30.7,20.3,29.84,NNW,336,0.0,3.0,65,0.00,,---,0.00,0.00,VWS V14.01,2013-03-05 02:57:00,
2013-03-04 21:58:00,30.7,20.3,29.84,NNW,336,0.0,3.0,65,0.00,,---,0.00,0.00,VWS V14.01,2013-03-05 02:58:00,
2013-03-04 21:59:00,30.7,20.3,29.84,NNW,336,0.0,3.0,65,0.00,,---,0.00,0.00,VWS V14.01,2013-03-05 02:59:00,
2013-03-04 22:01:00,30.7,20.3,29.84,WSW,257,0.0,3.0,65,0.00,,---,0.00,0.00,VWS V14.01,2013-03-05 03:01:00,
2013-03-04 22:02:00,30.6,20.2,29.84,WSW,257,0.0,3.0,65,0.00,,---,0.00,0.00,VWS V14.01,2013-03-05 03:02:00,
2013-03-04 22:04:00,30.6,20.6,29.84,NW,309,2.0,2.0,66,0.00,,---,0.00,0.00,VWS V14.01,2013-03-05 03:04:00,
2013-03-04 22:06:00,30.5,20.1,29.84,SW,234,1.0,4.0,65,0.00,,---,0.00,0.00,VWS V14.01,2013-03-05 03:06:00,
2013-03-04 22:07:00,30.5,20.1,29.84,SW,222,0.0,4.0,65,0.00,,---,0.00,0.00,VWS V14.01,2013-03-05 03:07:00,
2013-03-04 22:09:00,30.5,20.5,29.84,NNW,329,0.0,4.0,66,0.00,,---,0.00,0.00,VWS V14.01,2013-03-05 03:09:00,
2013-03-04 22:11:00,30.4,20.4,29.84,NNW,331,0.0,4.0,66,0.00,,---,0.00,0.00,VWS V14.01,2013-03-05 03:11:00,
2013-03-04 22:12:00,30.3,20.7,29.84,NNW,337,3.0,3.0,67,0.00,,---,0.00,0.00,VWS V14.01,2013-03-05 03:12:00,
2013-03-04 22:14:00,30.3,20.3,29.84,NW,312,0.0,3.0,66,0.00,,---,0.00,0.00,VWS V14.01,2013-03-05 03:14:00,
2013-03-04 22:16:00,30.3,20.3,29.84,NNW,346,1.0,3.0,66,0.00,,---,0.00,0.00,VWS V14.01,2013-03-05 03:16:00,
2013-03-04 22:17:00,30.2,20.2,29.84,NNW,346,0.0,3.0,66,0.00,,---,0.00,0.00,VWS V14.01,2013-03-05 03:17:00,
2013-03-04 22:19:00,30.2,20.6,29.84,WSW,239,1.0,3.0,67,0.00,,---,0.00,0.00,VWS V14.01,2013-03-05 03:19:00,
2013-03-04 22:21:00,30.2,20.6,29.84,SW,234,0.0,3.0,67,0.00,,---,0.00,0.00,VWS V14.01,2013-03-05 03:21:00,
2013-03-04 22:22:00,30.1,20.5,29.84,WSW,240,0.0,1.0,67,0.00,,---,0.00,0.00,VWS V14.01,2013-03-05 03:22:00,
2013-03-04 22:24:00,30.1,20.1,29.84,WSW,240,1.0,2.0,66,0.00,,---,0.00,0.00,VWS V14.01,2013-03-05 03:24:00,
2013-03-04 22:26:00,30.1,20.5,29.84,ENE,77,0.0,3.0,67,0.00,,---,0.00,0.00,VWS V14.01,2013-03-05 03:26:00,
2013-03-04 22:27:00,30.1,20.5,29.84,NNW,346,0.0,3.0,67,0.00,,---,0.00,0.00,VWS V14.01,2013-03-05 03:27:00,
2013-03-04 22:29:00,30.1,20.5,29.84,NW,321,0.0,3.0,67,0.00,,---,0.00,0.00,VWS V14.01,2013-03-05 03:29:00,
2013-03-04 22:31:00,30.0,20.4,29.84,North,5,1.0,3.0,67,0.00,,---,0.00,0.00,VWS V14.01,2013-03-05 03:31:00,
2013-03-04 22:32:00,30.0,20.4,29.84,North,350,0.0,3.0,67,0.00,,---,0.00,0.00,VWS V14.01,2013-03-05 03:32:00,
2013-03-04 22:34:00,30.0,20.4,29.84,West,260,0.0,4.0,67,0.00,,---,0.00,0.00,VWS V14.01,2013-03-05 03:34:00,
2013-03-04 22:36:00,30.0,20.4,29.84,NW,304,0.0,4.0,67,0.00,,---,0.00,0.00,VWS V14.01,2013-03-05 03:36:00,
2013-03-04 22:37:00,30.0,20.7,29.84,WSW,257,1.0,4.0,68,0.00,,---,0.00,0.00,VWS V14.01,2013-03-05 03:37:00,
2013-03-04 22:39:00,29.9,20.6,29.84,WSW,247,0.0,4.0,68,0.00,,---,0.00,0.00,VWS V14.01,2013-03-05 03:39:00,
2013-03-04 22:40:00,29.9,20.6,29.84,NNW,346,4.0,4.0,68,0.00,,---,0.00,0.00,VWS V14.01,2013-03-05 03:40:00,
2013-03-04 22:41:00,29.9,20.3,29.84,NNW,336,1.0,5.0,67,0.00,,---,0.00,0.00,VWS V14.01,2013-03-05 03:41:00,
2013-03-04 22:42:00,29.9,20.3,29.84,NNW,328,1.0,2.0,67,0.00,,---,0.00,0.00,VWS V14.01,2013-03-05 03:42:00,
2013-03-04 22:44:00,29.9,20.3,29.84,NNW,344,1.0,2.0,67,0.00,,---,0.00,0.00,VWS V14.01,2013-03-05 03:44:00,
2013-03-04 22:45:00,29.9,20.3,29.84,NNW,344,0.0,2.0,67,0.00,,---,0.00,0.00,VWS V14.01,2013-03-05 03:45:00,
2013-03-04 22:46:00,29.9,20.6,29.85,SW,235,0.0,2.0,68,0.00,,---,0.00,0.00,VWS V14.01,2013-03-05 03:46:00,
2013-03-04 22:48:00,29.9,20.3,29.85,NNW,333,3.0,3.0,67,0.00,,---,0.00,0.00,VWS V14.01,2013-03-05 03:48:00,
2013-03-04 22:49:00,29.9,20.3,29.84,NNE,22,0.0,3.0,67,0.00,,---,0.00,0.00,VWS V14.01,2013-03-05 03:49:00,
2013-03-04 22:50:00,29.9,20.3,29.84,SW,232,0.0,3.0,67,0.00,,---,0.00,0.00,VWS V14.01,2013-03-05 03:50:00,
2013-03-04 22:51:00,29.9,20.6,29.84,SSW,197,2.0,3.0,68,0.00,,---,0.00,0.00,VWS V14.01,2013-03-05 03:51:00,
2013-03-04 22:53:00,29.9,20.6,29.84,SE,140,0.0,1.0,68,0.00,,---,0.00,0.00,VWS V14.01,2013-03-05 03:53:00,
2013-03-04 22:54:00,29.9,20.6,29.84,SW,229,0.0,3.0,68,0.00,,---,0.00,0.00,VWS V14.01,2013-03-05 03:54:00,
2013-03-04 22:55:00,29.9,20.6,29.84,SW,229,0.0,3.0,68,0.00,,---,0.00,0.00,VWS V14.01,2013-03-05 03:55:00,
2013-03-04 22:56:00,29.9,20.3,29.85,NE,46,3.0,3.0,67,0.00,,---,0.00,0.00,VWS V14.01,2013-03-05 03:56:00,
2013-03-04 22:58:00,29.9,20.3,29.85,SSW,213,1.0,6.0,67,0.00,,---,0.00,0.00,VWS V14.01,2013-03-05 03:58:00,
2013-03-04 22:59:00,29.9,20.3,29.85,WSW,248,0.0,6.0,67,0.00,,---,0.00,0.00,VWS V14.01,2013-03-05 03:59:00,
2013-03-04 23:00:00,29.9,20.6,29.85,SSW,205,0.0,6.0,68,0.00,,---,0.00,0.00,VWS V14.01,2013-03-05 04:00:00,
2013-03-04 23:01:00,29.9,20.3,29.84,NW,305,0.0,6.0,67,0.00,,---,0.00,0.00,VWS V14.01,2013-03-05 04:01:00,
2013-03-04 23:03:00,29.9,20.3,29.85,NNE,17,0.0,1.0,67,0.00,,---,0.00,0.00,VWS V14.01,2013-03-05 04:03:00,
2013-03-04 23:05:00,29.8,20.5,29.85,WNW,296,1.0,1.0,68,0.00,,---,0.00,0.00,VWS V14.01,2013-03-05 04:05:00,
2013-03-04 23:06:00,29.8,20.5,29.85,NW,319,0.0,2.0,68,0.00,,---,0.00,0.00,VWS V14.01,2013-03-05 04:06:00,
2013-03-04 23:08:00,29.9,20.6,29.85,NNW,345,0.0,2.0,68,0.00,,---,0.00,0.00,VWS V14.01,2013-03-05 04:08:00,
2013-03-04 23:10:00,29.8,20.5,29.85,ENE,60,1.0,3.0,68,0.00,,---,0.00,0.00,VWS V14.01,2013-03-05 04:10:00,
2013-03-04 23:12:00,29.9,20.3,29.85,North,350,3.0,4.0,67,0.00,,---,0.00,0.00,VWS V14.01,2013-03-05 04:12:00,
2013-03-04 23:14:00,29.9,20.6,29.85,NNW,341,2.0,3.0,68,0.00,,---,0.00,0.00,VWS V14.01,2013-03-05 04:14:00,
2013-03-04 23:15:00,29.9,20.6,29.85,SE,124,0.0,3.0,68,0.00,,---,0.00,0.00,VWS V14.01,2013-03-05 04:15:00,
2013-03-04 23:17:00,29.9,20.6,29.85,SW,221,2.0,5.0,68,0.00,,---,0.00,0.00,VWS V14.01,2013-03-05 04:17:00,
2013-03-04 23:19:00,29.9,20.6,29.85,NNW,344,0.0,5.0,68,0.00,,---,0.00,0.00,VWS V14.01,2013-03-05 04:19:00,
2013-03-04 23:20:00,29.9,21.0,29.85,NNW,344,0.0,5.0,69,0.00,,---,0.00,0.00,VWS V14.01,2013-03-05 04:20:00,
2013-03-04 23:22:00,29.8,20.9,29.85,NW,322,0.0,0.0,69,0.00,,---,0.00,0.00,VWS V14.01,2013-03-05 04:22:00,
2013-03-04 23:24:00,29.8,20.9,29.85,WSW,243,0.0,3.0,69,0.00,,---,0.00,0.00,VWS V14.01,2013-03-05 04:24:00,
2013-03-04 23:25:00,29.8,20.5,29.85,WSW,243,0.0,3.0,68,0.00,,---,0.00,0.00,VWS V14.01,2013-03-05 04:25:00,
2013-03-04 23:27:00,29.8,20.5,29.85,WSW,258,1.0,3.0,68,0.00,,---,0.00,0.00,VWS V14.01,2013-03-05 04:27:00,
2013-03-04 23:29:00,29.8,20.5,29.85,North,355,1.0,3.0,68,0.00,,---,0.00,0.00,VWS V14.01,2013-03-05 04:29:00,
2013-03-04 23:30:00,29.8,20.9,29.85,West,259,0.0,3.0,69,0.00,,---,0.00,0.00,VWS V14.01,2013-03-05 04:30:00,
2013-03-04 23:31:00,29.8,20.9,29.85,WNW,302,1.0,3.0,69,0.00,,---,0.00,0.00,VWS V14.01,2013-03-05 04:31:00,
2013-03-04 23:32:00,29.8,20.9,29.86,WNW,289,0.0,1.0,69,0.00,,---,0.00,0.00,VWS V14.01,2013-03-05 04:32:00,
2013-03-04 23:34:00,29.8,20.9,29.86,WNW,290,0.0,1.0,69,0.00,,---,0.00,0.00,VWS V14.01,2013-03-05 04:34:00,
2013-03-04 23:35:00,29.7,20.8,29.86,WNW,300,0.0,2.0,69,0.00,,---,0.00,0.00,VWS V14.01,2013-03-05 04:35:00,
2013-03-04 23:36:00,29.7,20.8,29.86,WNW,300,0.0,2.0,69,0.00,,---,0.00,0.00,VWS V14.01,2013-03-05 04:36:00,
2013-03-04 23:37:00,29.7,20.8,29.86,NNW,340,1.0,2.0,69,0.00,,---,0.00,0.00,VWS V14.01,2013-03-05 04:37:00,
2013-03-04 23:39:00,29.7,20.8,29.86,WNW,292,0.0,2.0,69,0.00,,---,0.00,0.00,VWS V14.01,2013-03-05 04:39:00,
2013-03-04 23:40:00,29.7,21.1,29.86,North,360,0.0,3.0,70,0.00,,---,0.00,0.00,VWS V14.01,2013-03-05 04:40:00,
2013-03-04 23:41:00,29.7,21.1,29.86,North,360,0.0,3.0,70,0.00,,---,0.00,0.00,VWS V14.01,2013-03-05 04:41:00,
2013-03-04 23:43:00,29.6,21.0,29.86,North,360,1.0,1.0,70,0.00,,---,0.00,0.00,VWS V14.01,2013-03-05 04:43:00,
2013-03-04 23:44:00,29.5,20.9,29.86,NNW,331,2.0,4.0,70,0.00,,---,0.00,0.00,VWS V14.01,2013-03-05 04:44:00,
2013-03-04 23:45:00,29.5,20.6,29.86,SW,221,0.0,4.0,69,0.00,,---,0.00,0.00,VWS V14.01,2013-03-05 04:45:00,
2013-03-04 23:46:00,29.5,20.6,29.86,SW,223,0.0,4.0,69,0.00,,---,0.00,0.00,VWS V14.01,2013-03-05 04:46:00,
2013-03-04 23:48:00,29.6,20.7,29.86,NW,309,1.0,4.0,69,0.00,,---,0.00,0.00,VWS V14.01,2013-03-05 04:48:00,
2013-03-04 23:49:00,29.6,21.0,29.86,NW,324,0.0,4.0,70,0.00,,---,0.00,0.00,VWS V14.01,2013-03-05 04:49:00,
2013-03-04 23:50:00,29.6,21.0,29.86,West,269,1.0,4.0,70,0.00,,---,0.00,0.00,VWS V14.01,2013-03-05 04:50:00,
2013-03-04 23:51:00,29.6,20.7,29.86,SW,226,0.0,4.0,69,0.00,,---,0.00,0.00,VWS V14.01,2013-03-05 04:51:00,
2013-03-04 23:53:00,29.7,20.8,29.86,West,261,1.0,2.0,69,0.00,,---,0.00,0.00,VWS V14.01,2013-03-05 04:53:00,
2013-03-04 23:54:00,29.7,21.1,29.86,SSW,206,3.0,3.0,70,0.00,,---,0.00,0.00,VWS V14.01,2013-03-05 04:54:00,
2013-03-04 23:55:00,29.7,20.8,29.86,NNW,333,0.0,7.0,69,0.00,,---,0.00,0.00,VWS V14.01,2013-03-05 04:55:00,
2013-03-04 23:56:00,29.7,20.8,29.86,NNW,335,1.0,7.0,69,0.00,,---,0.00,0.00,VWS V14.01,2013-03-05 04:56:00,
2013-03-04 23:58:00,29.7,20.8,29.86,North,355,0.0,7.0,69,0.00,,---,0.00,0.00,VWS V14.01,2013-03-05 04:58:00,
2013-03-04 23:59:00,29.7,20.8,29.86,NNW,344,0.0,7.0,69,0.00,,---,0.00,0.00,VWS V14.01,2013-03-05 04:59:00,